GFSFLT1_sfc_rhum_000.txt.gz
RH
56 51 52 54 55 57 55 58 58 56 60 60 59 60 60 65 68 65 66 65 55 57 57 57 56 56 56 53 56 56 56 57 55
56 59 57 59 62 60 59 59 59 62 60 61 62 61 63 66 64 62 68 65 54 53 53 55 55 53 54 51 53 53 53 52 53
60 60 66 63 63 60 58 58 61 62 61 59 62 61 68 56 56 63 69 61 52 52 52 53 54 54 53 50 50 50 51 51 51
66 69 71 69 63 59 56 52 56 63 62 62 64 63 69 72 61 49 70 63 50 52 49 50 52 53 53 49 48 48 48 49 50
74 78 76 71 66 61 52 49 52 61 65 64 62 71 72 70 58 62 73 58 50 50 48 46 47 47 47 48 48 48 47 46 47
75 79 79 72 68 62 52 51 56 61 67 66 69 75 80 58 58 69 69 57 52 50 50 46 46 47 47 48 49 50 49 48 49
66 84 83 73 72 68 58 54 57 66 62 66 76 89 68 54 54 73 71 60 56 54 53 51 49 49 51 52 52 53 53 52 53
77 93 92 94 90 88 73 74 77 68 59 61 77 72 57 45 43 63 74 62 59 59 58 58 54 53 53 54 54 54 54 54 55
73 74 82 83 84 88 80 74 67 56 47 48 42 46 44 45 38 61 78 67 58 61 61 59 58 54 53 54 55 56 56 57 58
66 67 69 69 68 70 69 65 59 58 50 45 40 37 38 38 42 40 82 78 65 58 58 58 58 58 53 53 55 56 57 58 58
67 65 67 69 68 66 66 64 60 61 61 53 43 38 38 39 39 46 53 78 72 56 52 53 53 53 54 53 54 55 56 57 57
67 66 68 70 68 65 67 65 64 64 59 62 52 44 40 40 39 40 45 64 75 66 50 49 49 50 51 53 53 54 62 63 64
72 72 68 68 70 71 73 73 73 73 71 70 67 56 50 46 42 41 39 44 50 70 68 62 54 52 52 52 52 54 61 64 65
65 68 68 65 70 72 72 74 76 79 78 72 68 67 64 55 38 43 43 47 49 47 67 73 68 66 58 54 53 53 60 63 65
63 65 67 66 65 71 76 76 78 76 78 59 57 64 62 65 66 61 50 54 52 55 52 60 70 76 68 58 54 54 57 63 65
61 64 66 68 67 64 66 71 75 75 80 83 84 81 74 70 64 68 65 61 61 60 51 52 51 52 76 72 61 58 58 58 62
62 64 68 68 70 71 67 69 76 74 83 79 91 88 84 71 62 58 56 56 57 58 52 54 56 59 58 65 76 72 60 58 59
68 66 68 72 71 74 73 70 74 79 87 72 75 93 88 88 75 65 59 59 75 73 65 59 54 54 58 63 64 79 75 62 63
68 69 71 72 73 75 76 73 72 71 75 80 68 68 73 88 84 78 70 63 57 56 61 52 58 55 60 66 71 74 74 64 62
68 70 73 73 72 70 74 74 71 69 76 78 76 77 76 74 80 82 72 70 62 59 57 58 59 54 62 64 67 77 76 68 67

GFSFLT1_sfc_rhum_003.txt.gz
RH
57 55 53 58 58 59 57 61 59 54 58 62 61 59 60 65 69 77 66 67 57 57 56 56 56 55 52 56 56 56 55 54 55
59 61 59 61 64 62 60 60 62 62 62 64 64 63 63 71 71 80 74 71 55 54 55 55 53 54 50 53 54 54 52 51 52
64 61 64 64 68 66 62 61 63 66 63 63 66 65 69 65 69 75 77 66 56 54 54 54 55 54 52 51 52 52 51 50 50
64 66 71 67 70 64 62 58 60 66 66 65 68 67 72 78 69 64 75 67 55 54 52 54 54 55 54 50 48 49 50 50 50
76 80 78 73 70 67 63 56 54 58 65 68 68 75 76 80 64 72 77 59 54 55 52 51 51 53 52 51 52 50 49 48 49
87 86 85 78 73 69 62 54 56 66 74 72 74 77 92 84 62 72 72 60 54 54 55 52 50 50 50 51 52 53 53 51 50
76 88 86 78 76 74 65 57 61 72 75 81 80 90 90 81 66 72 75 62 54 54 54 54 52 51 53 54 54 55 55 55 54
92 98 96 96 90 94 81 77 76 82 80 69 74 89 90 74 59 60 80 65 58 56 58 59 58 56 55 56 57 57 57 57 57
94 97 98 98 97 98 97 94 87 85 72 69 75 84 77 66 55 53 85 74 63 59 59 62 63 62 58 57 57 58 59 59 59
83 88 90 93 90 92 96 90 78 76 68 56 55 54 57 55 50 47 85 82 72 60 59 60 62 62 62 58 57 58 60 60 60
77 77 75 78 77 77 80 78 72 68 67 56 52 49 46 44 44 50 53 84 79 68 57 56 57 58 58 59 58 63 61 60 61
74 72 71 69 73 72 75 77 74 72 66 70 64 51 45 42 41 44 51 56 81 76 53 52 52 55 55 55 56 63 65 66 67
76 73 68 69 74 73 77 76 77 79 74 74 71 66 58 50 43 41 40 45 44 70 72 63 61 60 54 53 53 58 63 66 67
68 68 71 76 77 74 73 79 77 78 75 73 72 69 68 62 48 48 44 42 44 48 59 73 67 65 63 52 52 55 62 64 66
72 69 71 82 75 73 88 75 87 73 72 66 63 71 64 64 64 56 46 45 47 47 45 49 65 73 68 62 54 53 60 63 66
74 70 79 84 75 70 71 75 82 75 92 88 77 81 76 69 63 59 59 57 56 53 50 51 51 51 75 70 65 61 58 62 65
74 70 72 76 76 77 75 76 75 75 87 78 94 84 82 76 66 65 64 60 56 58 60 56 54 55 57 62 72 69 62 57 58
75 70 72 74 79 77 79 78 77 78 90 81 77 95 94 94 86 76 65 63 64 63 58 58 56 55 59 65 66 72 72 62 58
74 74 76 78 80 80 79 78 78 74 78 91 77 72 85 91 92 88 81 76 67 68 70 66 64 60 61 65 68 69 74 64 60
79 77 78 82 82 82 78 76 83 82 80 78 78 87 80 78 82 83 70 86 71 66 64 59 57 54 57 62 66 74 71 64 62

GFSFLT1_sfc_rhum_006.txt.gz
RH
58 56 58 60 59 59 59 63 59 58 55 56 60 57 59 67 72 85 74 70 56 55 56 57 56 53 54 56 54 55 53 54 55
59 59 58 61 62 63 60 62 64 58 62 66 60 63 62 72 73 83 78 74 57 56 56 55 54 52 50 54 53 52 51 52 52
60 64 63 63 69 69 65 62 63 67 66 65 67 68 71 70 71 83 81 71 57 55 55 57 55 54 51 52 52 52 51 51 51
67 65 69 68 69 70 67 63 62 65 67 66 68 73 75 82 73 66 83 71 57 56 57 58 59 57 55 51 53 53 53 52 52
73 79 77 72 74 72 68 65 60 60 67 69 70 78 80 86 75 66 78 69 56 57 55 56 58 58 58 55 54 53 53 54 55
88 88 85 80 76 74 71 66 59 63 70 74 77 80 96 90 74 65 75 68 56 56 58 55 54 55 56 55 56 56 55 54 54
84 92 87 79 80 78 74 69 65 70 87 90 84 95 93 93 80 67 62 70 61 59 58 58 55 54 55 55 55 56 57 58 57
94 98 96 97 90 94 86 87 84 84 90 85 82 87 94 95 78 58 62 64 65 61 57 59 59 56 55 57 58 58 59 59 59
96 98 95 97 97 98 98 98 94 89 88 89 77 74 84 85 74 66 64 68 68 61 60 59 61 61 60 58 58 60 61 60 60
96 96 97 97 98 98 98 98 94 95 91 80 72 66 75 79 69 62 66 70 77 64 61 60 61 64 65 64 61 61 61 61 62
85 85 89 90 96 94 94 94 93 89 83 75 67 60 59 61 60 57 53 65 81 75 58 59 60 60 61 63 66 69 67 64 65
74 77 77 79 90 90 90 90 90 88 79 73 67 58 55 51 48 44 44 50 70 82 65 57 61 63 59 59 61 68 71 70 70
81 80 80 80 83 85 84 79 80 85 81 70 73 63 65 58 50 44 41 42 40 53 76 70 62 61 60 54 56 63 66 69 71
81 82 82 82 82 82 80 77 84 73 80 78 73 74 71 67 57 54 47 42 43 43 51 66 72 65 63 56 52 58 62 64 67
80 75 77 85 85 80 87 79 82 78 72 71 69 69 72 68 65 62 56 52 48 44 42 44 53 72 68 63 60 59 60 62 64
76 74 74 83 81 74 74 77 79 79 91 95 78 78 78 76 70 66 65 61 57 53 50 48 46 46 66 73 68 65 63 63 63
75 74 72 75 81 81 79 80 79 78 89 87 85 88 73 73 72 70 68 66 62 61 58 53 50 50 53 56 72 72 67 60 62
82 76 76 75 81 80 80 85 86 82 74 81 84 97 94 92 89 86 77 72 72 70 63 60 61 57 57 63 65 72 72 64 61
87 84 82 81 80 84 82 80 84 82 88 80 80 77 78 92 84 81 88 86 78 73 72 70 66 63 63 64 68 70 74 68 67
78 87 91 90 86 84 83 84 87 84 89 88 86 89 89 84 93 95 78 69 77 72 71 68 68 67 68 67 68 74 74 69 66

GFSFLT1_sfc_rhum_009.txt.gz
RH
62 58 58 62 61 61 62 65 63 59 58 58 58 63 58 69 73 88 84 79 61 57 58 59 58 57 56 56 54 55 53 53 53
57 59 59 62 62 64 61 62 66 62 59 63 65 64 64 75 75 86 88 75 59 57 57 58 56 54 53 56 54 53 53 54 54
59 64 63 63 66 67 66 63 62 66 66 66 66 69 75 73 73 77 87 78 59 58 59 59 57 56 53 56 56 55 54 53 53
64 66 66 67 68 72 71 68 64 64 65 67 67 74 80 88 79 67 87 78 60 56 58 58 60 58 57 55 56 57 56 55 54
74 77 76 71 72 73 73 71 68 63 64 68 72 77 82 92 84 74 78 73 66 57 59 59 59 60 60 57 55 56 57 57 56
88 89 86 78 76 77 75 73 70 70 71 72 76 81 96 95 90 75 67 68 69 59 58 60 58 60 60 60 58 57 56 56 57
85 93 89 81 79 79 76 74 74 77 85 92 85 94 96 97 95 81 66 63 67 63 58 61 59 57 58 60 59 58 59 59 58
97 98 97 98 95 97 92 93 95 90 92 95 95 92 95 98 95 80 69 64 64 65 63 62 62 60 58 58 59 58 58 59 60
98 97 97 98 98 98 98 99 97 95 92 92 92 88 82 84 84 87 74 66 62 61 64 64 64 62 61 58 58 60 60 61 61
97 97 98 98 98 98 98 99 98 98 96 94 91 83 77 74 71 76 74 70 62 61 62 65 63 62 63 62 61 64 62 62 63
97 96 97 98 99 98 98 97 97 96 97 92 89 79 70 68 68 70 70 70 68 61 58 61 62 61 62 63 70 71 71 69 68
90 94 94 92 97 96 96 97 97 97 93 90 82 78 72 65 60 56 54 56 67 68 62 56 61 65 61 60 66 70 72 74 73
92 85 85 85 88 88 89 86 88 89 87 81 77 73 69 66 60 55 51 50 46 50 60 66 66 67 65 54 60 64 67 70 72
82 84 80 89 85 86 83 82 86 78 79 84 77 76 74 69 62 62 59 55 51 48 54 61 66 69 66 59 56 59 61 63 67
82 78 79 87 86 84 89 84 84 82 75 71 71 74 75 76 72 69 64 62 58 53 49 50 52 66 66 66 61 62 62 62 63
80 76 76 81 83 76 76 86 86 85 88 87 79 75 75 76 74 71 70 69 66 63 57 53 51 50 64 67 65 68 67 65 65
82 81 78 78 84 86 85 87 88 86 86 86 92 94 81 85 79 76 75 73 70 69 67 63 57 57 57 59 65 69 67 63 67
94 93 91 88 92 87 85 90 92 93 85 82 88 99 96 91 87 89 80 77 78 76 71 67 65 62 60 64 65 70 69 64 64
76 83 91 95 95 96 92 84 86 90 95 88 82 82 83 95 91 79 86 78 77 75 77 74 70 66 67 69 70 72 74 70 69
68 66 73 73 77 86 94 94 92 89 93 92 91 90 92 91 98 95 80 73 78 72 73 70 70 67 67 70 70 75 76 72 71

GFSFLT1_sfc_rhum_012.txt.gz
RH
63 59 58 60 62 62 62 66 64 61 61 59 59 62 58 68 76 85 88 87 71 57 57 62 64 60 61 59 55 57 58 55 56
60 60 60 61 63 63 63 61 65 66 63 61 62 63 69 81 80 80 93 88 67 57 58 59 58 56 55 58 56 57 55 56 55
58 64 64 62 63 65 66 65 62 63 66 65 65 67 77 78 80 74 89 83 68 60 59 59 59 58 56 57 58 56 55 55 55
64 65 66 67 66 68 72 71 69 66 64 65 67 73 78 91 88 70 81 81 72 64 58 60 61 60 58 56 59 58 57 56 55
74 78 77 70 69 72 73 74 72 70 67 66 70 77 80 93 94 86 78 72 73 68 59 59 60 60 61 60 58 59 59 58 57
87 86 85 81 75 73 74 76 74 77 79 73 74 80 96 95 98 94 75 66 71 68 65 60 61 60 61 62 61 58 58 59 59
86 90 86 81 81 80 75 74 77 84 95 92 82 95 96 98 98 98 81 70 63 66 66 64 62 63 60 61 62 62 60 59 58
97 98 97 97 95 98 95 96 98 96 97 96 96 95 95 98 98 92 83 76 65 63 63 64 66 63 64 61 60 62 61 61 61
97 98 97 97 98 98 98 99 98 97 96 96 95 94 92 87 86 90 79 76 70 62 60 62 66 68 66 65 62 64 64 61 61
97 98 98 98 98 98 98 98 98 98 97 96 96 93 91 87 78 74 75 71 67 65 60 58 61 62 67 68 69 69 68 67 68
98 98 98 98 98 97 98 97 97 97 97 95 96 93 89 84 77 70 70 71 69 67 64 61 56 58 61 67 70 72 72 71 70
95 97 98 94 97 96 98 98 98 98 96 96 91 90 89 82 76 70 66 66 73 71 67 62 59 56 55 57 66 69 71 73 75
96 96 92 91 96 96 97 94 94 96 91 87 84 83 80 76 74 69 64 62 58 60 65 65 63 62 58 55 58 64 66 68 70
93 91 85 92 96 95 91 86 93 83 82 87 82 80 80 77 68 69 67 64 62 58 61 68 68 69 67 59 56 61 62 63 65
90 88 87 90 96 94 96 88 78 82 78 75 73 71 72 78 80 75 70 68 67 63 60 59 61 70 68 65 63 65 66 65 64
84 86 86 87 93 84 78 77 87 87 90 90 84 82 80 79 78 76 77 76 72 71 67 64 62 60 69 70 67 66 67 70 69
90 95 95 94 95 94 95 93 89 87 86 93 93 96 88 90 82 80 80 79 75 75 73 70 66 63 63 64 70 71 67 67 67
66 74 82 88 97 99 98 96 94 96 86 85 95 98 94 88 78 89 85 82 80 79 76 74 72 68 65 68 70 73 73 68 68
63 66 69 75 81 80 85 73 94 94 93 87 86 91 94 97 94 76 90 83 81 78 78 78 74 72 72 71 72 73 75 71 71
65 62 71 70 72 78 81 79 80 84 90 89 91 92 91 90 93 91 78 71 78 79 78 75 74 72 71 72 73 77 77 73 72

GFSFLT1_sfc_rhum_015.txt.gz
RH
62 61 59 57 62 62 61 62 65 66 61 62 61 61 64 64 56 56 63 64 66 65 58 60 65 66 66 64 60 57 58 58 57
59 60 60 59 62 62 62 62 61 64 65 64 62 64 67 58 55 53 60 66 76 68 58 60 61 60 58 59 59 57 58 56 56
62 64 62 63 62 64 63 64 64 63 63 64 62 68 67 66 62 58 56 71 78 64 60 60 60 60 59 56 59 58 57 56 57
62 64 65 68 66 63 69 72 72 70 67 66 66 73 77 59 64 65 53 63 74 69 66 60 61 62 60 59 57 60 58 57 57
73 78 77 70 70 69 72 72 72 73 72 71 73 77 80 57 62 64 62 70 65 71 68 66 59 61 61 62 61 59 61 60 59
69 78 82 79 77 74 72 73 74 79 81 79 79 82 52 54 59 63 75 78 68 64 68 66 65 61 63 62 63 62 60 61 61
70 79 84 80 80 83 80 77 78 81 64 66 77 62 60 56 56 58 79 81 74 65 64 66 66 65 66 64 62 63 64 62 60
72 74 69 72 80 67 68 69 66 68 66 66 64 64 63 58 56 59 77 77 73 69 63 64 65 65 67 66 65 63 63 64 63
75 72 72 75 69 73 72 68 66 68 68 67 66 64 63 60 58 58 75 73 67 64 65 63 60 63 66 67 70 71 70 69 69
71 71 72 72 73 71 71 70 66 66 65 65 67 67 64 61 60 58 74 77 74 66 59 60 60 58 60 66 72 72 74 72 71
74 71 71 71 70 67 68 68 68 68 66 67 64 66 63 62 62 58 57 75 76 74 69 62 59 60 58 59 68 71 74 75 74
74 72 71 68 67 69 69 69 71 71 67 68 64 63 61 62 62 60 58 57 75 75 73 70 66 62 60 59 61 66 69 72 75
73 72 68 66 69 69 68 67 68 70 72 70 67 66 62 60 58 58 57 57 54 63 72 72 70 68 65 62 60 64 65 66 70
70 68 66 64 68 69 70 68 70 72 71 73 70 66 65 63 60 59 58 58 59 55 64 74 74 75 70 67 64 66 66 66 66
68 68 68 68 71 71 72 76 71 72 72 74 73 69 66 64 64 62 59 58 60 59 60 58 58 74 72 70 70 68 71 70 68
66 65 63 65 70 71 72 75 77 76 72 89 84 74 66 65 64 61 61 62 62 61 59 58 56 55 73 71 71 72 70 72 74
44 50 51 51 54 54 56 62 69 70 64 86 89 88 67 56 70 62 62 62 60 61 61 59 59 59 57 62 73 74 71 71 70
47 49 48 51 52 55 58 58 63 64 55 56 78 82 80 80 58 58 56 60 62 63 63 62 61 60 59 65 67 76 75 72 71
46 48 51 51 52 54 56 50 59 60 64 59 46 66 71 73 72 41 51 48 51 57 54 60 61 61 63 70 74 75 76 75 76
45 46 50 50 50 54 58 56 60 58 67 67 67 67 67 65 75 81 58 55 49 50 52 51 55 58 61 65 70 79 79 78 78

GFSFLT1_sfc_rhum_018.txt.gz
RH
63 61 59 57 61 61 61 60 61 65 65 64 64 64 65 67 47 42 42 55 54 62 63 60 61 66 67 66 65 63 59 60 59
62 63 60 58 60 62 62 62 62 61 64 64 64 64 71 51 51 44 42 47 61 70 66 62 61 62 62 61 61 61 58 59 57
64 63 61 62 63 60 65 63 66 65 64 64 63 61 74 58 53 48 46 53 66 72 68 62 60 61 61 60 59 61 59 59 58
63 62 65 66 69 66 66 71 72 72 71 70 69 74 77 56 45 43 45 60 63 69 69 66 66 63 62 62 61 59 61 60 59
69 74 72 73 72 71 71 70 73 74 74 71 75 80 81 50 44 43 44 61 66 66 66 68 66 64 62 63 63 63 61 63 61
54 70 78 75 74 73 72 72 73 79 82 79 81 85 49 40 38 37 57 63 73 68 66 66 66 65 66 68 64 64 64 62 63
56 71 81 79 78 79 77 76 77 81 48 45 75 53 43 42 41 37 62 59 69 68 67 65 66 67 68 70 67 65 64 65 63
49 51 52 53 72 52 53 51 48 47 46 45 44 45 44 43 43 46 66 63 69 63 63 66 64 65 66 67 68 71 71 67 68
46 46 48 52 48 48 50 47 46 48 47 46 45 45 45 45 44 47 72 67 72 70 63 60 64 64 63 65 69 72 73 74 72
46 47 47 48 46 47 49 49 48 48 47 46 47 49 49 48 47 46 72 75 72 75 70 67 61 59 62 62 68 72 74 75 75
52 52 51 50 49 48 49 50 51 51 48 48 48 49 48 48 50 48 49 78 76 75 77 72 69 66 61 59 66 68 71 74 76
57 55 55 51 49 51 51 51 51 52 51 52 49 47 46 47 48 48 48 50 77 78 74 76 73 70 69 66 64 68 69 70 73
56 55 53 50 52 52 54 55 56 56 56 56 53 52 51 49 48 48 46 47 46 61 76 74 75 76 73 71 69 70 70 70 70
55 55 56 55 57 57 57 56 57 61 60 64 59 56 56 54 49 49 49 49 50 49 60 78 78 76 73 74 73 72 74 72 71
54 50 45 46 47 46 47 50 49 50 51 51 51 49 48 49 47 47 44 47 50 50 52 51 52 80 76 74 75 74 73 76 76
36 36 34 34 36 36 35 37 39 38 38 39 40 41 39 43 37 43 47 42 42 43 46 45 48 50 76 76 72 73 75 74 76
33 35 35 35 35 36 38 40 43 39 37 42 45 43 37 30 36 34 32 33 31 36 41 43 47 49 52 59 73 74 72 74 74
34 36 35 36 38 39 40 40 46 44 40 37 45 50 50 49 36 33 31 29 33 32 33 36 38 38 40 53 59 76 78 74 74
29 30 32 32 32 34 35 30 36 36 41 38 33 44 44 53 53 34 36 32 36 37 35 34 35 36 38 50 66 76 77 74 73
26 26 29 28 27 29 31 31 31 32 37 39 41 44 44 42 50 58 39 33 29 30 31 32 34 34 39 41 50 75 74 75 75

GFSFLT1_sfc_rhum_021.txt.gz
RH
62 62 61 57 61 62 61 61 61 62 65 65 64 65 68 71 49 48 44 43 53 55 60 64 60 61 65 67 66 64 64 61 59
64 64 61 59 60 62 63 61 62 64 62 62 63 63 72 56 48 48 47 44 50 58 64 61 60 61 61 62 62 62 62 58 58
65 66 63 62 64 64 61 66 66 68 66 66 66 68 76 54 50 50 52 58 51 59 65 67 62 61 60 61 61 60 61 61 60
62 65 65 66 68 69 67 68 72 72 72 71 73 77 80 62 52 46 44 61 56 58 64 67 64 66 65 62 62 62 61 62 62
70 71 73 71 71 71 72 70 69 72 76 78 80 82 83 60 52 48 45 61 55 59 63 65 66 64 64 67 65 64 63 62 63
49 66 74 71 71 72 71 71 72 78 83 82 81 85 57 49 43 39 54 57 55 61 65 65 66 66 66 71 71 68 64 64 64
46 66 78 77 78 78 76 74 77 80 56 48 77 61 49 44 44 43 61 53 53 58 64 66 66 65 67 70 71 69 69 66 66
42 45 47 55 72 61 55 58 61 50 45 45 42 42 42 42 44 48 68 60 57 60 64 64 63 66 66 66 67 72 74 74 73
41 40 43 48 47 48 51 48 46 46 46 44 44 43 44 44 46 48 72 71 61 63 67 69 66 63 64 66 66 72 74 75 76
41 43 44 45 46 47 49 49 48 47 45 45 45 47 46 47 48 49 69 79 72 66 67 71 72 68 65 63 69 72 72 74 76
51 50 50 49 48 47 48 49 50 51 48 48 46 46 46 45 46 46 48 74 80 73 70 70 73 75 71 68 69 70 72 73 74
54 54 55 51 48 49 50 51 54 57 56 58 54 49 45 46 46 47 47 50 75 81 72 70 70 73 75 72 72 74 71 71 72
54 54 53 53 55 59 63 62 56 52 50 50 52 52 48 46 44 46 46 49 48 59 81 77 71 70 70 72 74 74 76 76 73
55 58 56 46 50 46 45 43 44 48 46 45 44 44 44 44 39 42 44 46 51 51 62 76 83 82 72 69 70 72 76 78 78
39 36 34 34 36 35 37 38 37 38 36 30 33 35 36 39 39 43 38 42 44 38 44 49 54 79 80 73 70 69 70 74 79
34 34 32 34 34 34 35 38 44 43 39 42 42 40 37 35 34 36 33 34 33 32 32 34 40 45 75 69 72 70 69 70 72
30 34 35 34 36 36 37 39 42 40 38 43 45 47 39 36 36 32 32 32 33 34 34 34 37 40 41 46 65 66 64 62 65
28 30 30 31 33 36 37 36 43 41 38 36 42 47 46 47 38 36 32 32 31 34 34 30 31 34 36 44 46 55 66 60 61
24 25 26 27 28 29 33 26 32 35 41 39 28 43 42 52 52 35 35 30 26 28 30 28 28 31 36 48 60 73 67 68 70
24 22 24 24 26 27 30 30 31 31 40 41 40 40 42 42 44 45 38 31 28 27 28 29 31 31 35 44 52 62 60 58 60

GFSFLT1_sfc_rhum_024.txt.gz
RH
62 63 62 61 63 62 60 60 61 60 60 64 63 63 65 73 71 66 60 57 48 53 59 61 64 59 61 64 68 67 65 63 61
67 66 64 62 61 61 62 57 60 64 64 62 61 62 73 76 74 69 62 64 48 49 57 63 61 60 61 61 63 62 62 62 60
68 70 66 64 64 64 61 62 68 70 70 68 68 72 77 70 71 67 67 65 55 52 55 63 64 67 60 62 61 62 62 62 62
66 69 68 68 67 68 70 66 66 70 72 73 76 80 82 88 81 64 64 66 54 55 58 60 65 67 63 62 63 63 63 63 62
74 76 78 70 71 69 70 70 68 68 72 77 84 86 86 93 81 69 64 64 55 54 58 62 63 66 64 67 67 70 65 64 64
72 78 78 76 70 70 71 72 72 79 84 83 82 85 90 80 68 65 66 63 50 52 57 61 64 64 66 66 72 71 70 67 65
62 77 74 74 78 78 75 75 79 83 82 72 74 87 81 73 66 64 67 61 52 53 57 60 64 66 65 66 67 69 71 71 72
69 74 78 87 87 87 78 85 84 83 77 67 65 78 77 65 65 63 69 66 57 56 60 63 64 66 66 66 66 68 73 75 76
61 64 67 70 73 81 77 74 66 66 62 64 63 62 63 66 66 68 72 73 64 60 61 64 66 69 70 68 67 72 73 74 76
67 68 68 71 70 70 71 72 68 65 65 64 61 55 57 57 59 64 74 75 76 68 64 64 66 67 69 75 75 73 73 74 74
76 75 73 69 67 66 64 64 68 66 62 61 59 57 55 58 59 59 61 73 79 74 65 64 66 68 67 68 74 78 77 74 74
75 78 77 71 66 64 68 67 69 71 70 72 68 67 68 62 59 59 58 61 72 74 71 68 66 66 67 66 65 72 75 79 79
74 68 63 62 69 67 69 69 65 68 69 70 70 70 68 65 63 58 57 62 55 69 75 78 70 69 62 64 64 64 72 74 77
54 50 50 51 58 57 55 56 60 61 58 52 47 52 48 53 44 52 46 49 42 35 51 67 77 74 70 64 63 64 69 73 76
52 52 49 52 55 56 55 55 58 60 61 40 44 51 46 54 50 53 34 32 36 41 38 42 46 64 62 56 53 56 60 69 69
49 55 51 51 53 52 46 53 56 58 57 60 50 51 44 46 42 32 32 38 32 38 36 40 42 36 52 54 49 51 51 53 57
36 44 47 44 49 48 48 48 56 55 52 59 55 65 50 49 36 41 43 36 43 31 35 28 26 30 35 43 54 52 48 51 57
35 38 39 42 45 49 46 48 48 56 54 51 58 69 69 51 49 42 43 35 30 38 29 23 27 27 28 44 50 58 56 55 56
31 33 35 37 43 42 43 34 45 48 59 60 41 54 58 58 61 56 39 35 30 30 32 29 28 36 36 43 51 56 64 52 55
31 31 34 35 42 40 39 40 45 50 58 66 61 55 59 53 62 61 47 37 37 37 36 40 36 36 33 40 40 56 50 50 50

GFSFLT1_sfc_rhum_027.txt.gz
RH
62 64 63 65 64 63 61 60 60 59 58 60 62 63 65 76 82 78 71 65 57 48 58 62 63 64 61 64 70 71 69 66 64
67 68 66 65 63 62 62 60 59 63 66 65 64 63 72 81 87 79 73 67 61 54 51 58 63 64 63 60 62 64 65 64 62
70 69 67 66 66 65 64 61 65 70 72 71 70 74 79 78 82 77 74 70 63 57 55 55 61 64 65 66 63 62 63 63 63
66 72 70 68 68 68 70 70 66 67 70 74 78 84 85 91 89 76 77 72 63 57 57 59 60 62 65 67 65 64 63 64 64
76 79 78 71 70 72 68 68 69 69 70 74 83 87 90 95 94 85 79 72 65 59 56 58 61 62 64 66 66 65 68 69 67
81 84 81 80 74 70 70 71 73 80 84 84 85 85 92 95 88 80 76 71 65 60 60 61 59 62 64 64 66 67 68 68 72
69 82 82 78 78 79 74 75 81 85 93 90 82 79 83 90 80 75 73 69 59 57 63 64 64 62 65 68 67 66 66 67 72
78 85 84 86 86 87 82 86 91 92 93 88 82 76 88 84 77 69 74 69 60 60 65 67 69 67 67 68 69 69 70 69 73
71 76 81 87 86 87 88 88 79 79 77 75 63 62 63 65 63 66 77 75 65 60 65 68 70 72 69 69 71 78 76 75 76
79 80 79 78 77 77 74 70 68 68 73 68 64 63 66 64 69 73 79 79 76 66 60 60 66 67 68 70 72 75 74 76 77
82 82 79 73 71 69 70 70 70 69 71 77 73 74 72 70 70 69 72 76 71 67 61 60 59 58 58 63 68 72 72 73 74
81 78 71 70 68 58 53 48 60 65 59 60 59 69 71 69 69 67 70 71 74 71 52 50 56 59 63 66 66 66 69 71 73
64 46 45 48 50 56 58 62 63 65 65 63 59 60 55 56 58 58 59 57 42 50 56 54 49 52 55 57 58 59 67 72 74
46 48 54 56 61 61 58 62 65 65 63 49 49 59 48 59 50 53 39 37 42 48 52 60 61 53 48 48 50 51 52 58 59
53 54 51 54 60 56 54 55 54 60 61 37 50 45 54 61 55 48 28 41 42 46 43 51 50 50 40 42 44 44 45 45 47
46 52 48 49 55 50 43 53 53 56 57 64 48 57 52 47 42 26 50 39 41 37 30 33 27 26 42 42 43 49 50 49 49
36 44 46 43 50 45 45 49 55 58 57 65 68 67 61 52 32 47 38 46 39 32 30 26 25 30 31 39 49 48 46 48 53
37 37 41 44 49 50 45 48 50 58 60 62 61 67 73 49 56 36 50 41 37 42 30 33 31 31 43 46 46 48 49 54 55
34 35 38 40 46 43 46 39 49 56 62 67 53 59 64 74 64 60 36 42 39 36 39 38 35 43 42 42 48 45 47 52 54
33 33 36 37 44 41 41 44 45 50 61 64 69 61 64 65 64 53 49 43 40 38 39 39 43 41 35 36 39 46 50 50 53

GFSFLT1_sfc_rhum_030.txt.gz
RH
56 65 65 67 64 62 61 60 60 59 60 58 60 63 65 76 88 85 79 75 65 59 51 63 63 64 62 63 70 72 72 72 68
66 68 67 67 66 64 63 62 59 62 67 68 67 67 74 83 90 89 82 76 65 62 59 54 62 63 63 64 63 64 66 69 67
70 70 69 68 67 66 66 64 64 68 71 73 71 77 82 83 91 88 85 78 66 62 61 58 56 59 62 62 62 64 63 63 64
73 74 71 70 69 69 69 70 69 68 68 71 76 85 89 94 96 87 87 79 71 63 60 59 58 60 62 63 64 65 61 66 64
77 81 80 71 71 72 72 67 68 70 71 73 80 86 89 95 97 96 90 79 73 68 64 60 59 61 64 64 65 65 68 65 67
84 86 84 81 76 74 71 70 72 80 85 85 86 87 96 95 95 94 83 77 72 68 66 66 59 58 64 66 67 67 66 66 67
73 86 85 80 82 81 75 75 82 87 96 96 88 90 89 92 92 85 78 75 71 68 68 68 69 67 68 69 67 68 70 68 67
89 93 92 94 89 89 85 87 88 91 94 94 93 87 77 82 78 73 77 73 68 64 66 68 70 69 71 70 68 72 72 74 73
84 88 87 90 89 90 89 92 86 78 72 85 83 78 74 78 79 79 80 73 62 59 58 62 68 69 69 67 71 76 73 74 76
84 86 85 86 85 77 74 73 70 66 62 66 70 69 77 75 76 81 80 74 65 59 60 59 60 64 66 66 69 73 74 74 74
88 90 88 77 72 69 54 51 53 54 58 57 59 66 65 64 64 68 75 70 56 48 48 49 52 53 57 60 63 67 68 67 70
72 53 52 53 48 46 47 51 60 61 58 59 57 54 56 56 58 65 61 54 55 52 48 49 51 56 55 55 54 55 57 58 59
46 47 50 50 50 56 61 64 59 61 63 58 54 56 55 54 62 53 40 43 46 51 46 47 46 45 46 48 49 50 52 52 52
49 52 58 60 59 57 56 56 58 60 57 46 46 55 52 61 45 40 33 46 48 50 42 50 42 41 43 45 46 46 46 49 51
52 51 49 56 53 50 50 51 50 59 58 44 48 44 55 63 48 37 42 54 47 45 39 48 38 41 43 43 47 49 52 50 49
47 52 47 52 49 46 44 50 55 56 62 66 58 59 59 49 34 43 47 45 41 37 40 30 32 35 43 47 51 53 53 50 48
36 45 46 46 47 43 46 51 53 57 65 67 74 70 63 52 27 49 41 49 37 44 35 32 34 40 41 54 49 49 51 50 49
38 40 42 46 48 49 48 52 53 59 62 62 64 64 71 58 55 37 48 31 48 43 43 36 36 36 51 51 50 47 45 47 54
35 37 39 42 47 43 46 44 49 54 62 65 53 64 65 68 68 58 38 49 32 50 47 43 44 40 48 48 46 44 45 49 54
34 34 37 38 45 42 41 46 44 52 63 63 70 70 65 67 79 56 48 39 39 41 41 51 39 45 50 45 48 45 48 54 57

GFSFLT1_sfc_rhum_033.txt.gz
RH
62 65 65 67 64 62 61 60 60 59 60 59 60 61 63 74 89 91 86 81 69 62 60 55 63 63 64 62 65 72 74 74 73
59 68 68 69 67 65 63 62 61 62 67 68 68 70 76 87 91 91 88 82 70 62 63 61 56 64 66 64 63 62 62 66 69
68 70 70 69 67 66 65 64 64 66 68 67 67 71 83 87 93 94 93 85 75 66 61 62 62 58 58 59 62 63 64 66 64
74 73 72 70 70 70 70 70 69 69 68 69 74 83 88 95 98 93 96 86 77 70 66 64 62 60 62 62 62 62 63 64 63
80 83 81 73 72 72 73 70 67 69 71 73 80 85 88 95 96 97 96 82 76 72 69 68 66 62 63 65 67 67 66 64 68
86 88 86 82 76 74 74 71 73 81 85 84 87 88 97 95 96 97 86 80 75 72 72 71 68 66 67 69 70 67 69 68 68
80 87 87 82 82 84 76 77 83 89 97 98 90 95 92 93 93 92 81 75 71 69 68 71 70 67 70 71 70 67 69 68 70
95 96 94 95 92 92 87 88 88 90 93 94 96 91 89 90 89 83 73 66 64 62 62 63 64 64 67 68 72 72 72 72 75
93 93 93 94 94 93 93 92 79 73 69 69 70 72 81 80 80 79 72 66 60 54 54 58 58 61 63 66 68 71 72 71 75
87 90 92 93 90 77 72 64 56 50 49 49 58 61 64 61 67 77 74 56 50 51 51 52 53 55 57 60 62 64 66 67 69
86 87 81 62 53 49 50 50 50 52 58 51 53 55 55 56 57 68 57 53 48 50 50 51 54 54 53 53 54 56 57 58 59
58 54 56 54 48 47 46 48 55 55 50 48 46 47 57 50 64 50 38 53 54 48 48 50 49 49 49 50 51 52 51 51 52
48 50 52 49 50 54 56 56 51 54 53 50 46 53 49 56 54 37 40 53 50 47 48 46 44 45 46 48 48 48 48 52 54
48 55 60 53 51 52 52 52 57 56 51 46 51 52 51 67 34 35 46 52 49 44 42 43 41 43 44 47 49 50 53 54 54
48 50 52 50 48 48 47 49 51 63 61 46 46 50 57 61 41 44 40 51 45 44 41 43 40 41 44 46 51 52 52 50 51
46 51 48 48 44 45 44 50 53 56 62 60 58 63 61 54 40 48 45 43 38 48 43 42 38 42 45 46 52 53 51 52 52
38 46 47 44 45 44 48 52 53 56 66 70 78 66 55 54 32 48 49 40 45 48 32 46 40 46 51 48 50 49 51 52 50
40 41 43 45 47 50 51 52 51 56 60 65 54 52 64 69 57 42 52 35 52 38 49 47 39 46 44 53 57 49 49 50 55
38 39 40 43 47 44 46 44 49 56 61 63 48 64 71 63 64 60 40 48 31 47 57 46 47 48 45 54 50 48 47 53 57
35 36 37 40 47 43 43 44 45 54 61 63 68 71 67 69 78 55 51 35 33 39 44 54 48 46 51 60 55 47 51 54 58

GFSFLT1_sfc_rhum_036.txt.gz
RH
61 64 65 66 63 61 60 60 59 58 60 60 60 63 63 72 88 90 88 85 71 61 62 60 57 61 63 64 63 63 71 75 75
64 67 68 69 66 64 63 61 62 62 66 68 68 69 77 88 92 93 93 89 75 67 61 63 60 59 60 66 61 60 61 62 63
68 70 70 70 67 64 65 64 64 65 67 69 70 75 86 92 95 95 96 90 80 73 67 62 62 62 59 58 59 61 64 65 66
71 73 71 70 68 68 70 69 68 68 68 69 74 82 86 95 98 95 98 89 81 75 71 69 66 64 63 63 64 64 64 62 64
81 82 81 73 71 72 73 72 68 69 71 74 82 87 89 95 95 96 98 82 77 74 73 72 70 68 66 69 67 68 68 68 68
88 88 88 82 76 75 74 73 74 82 87 85 86 89 97 95 96 96 85 78 74 71 73 72 72 73 74 73 71 70 68 69 72
84 88 85 81 83 83 79 79 82 86 95 97 90 97 94 94 94 94 71 64 64 64 64 65 65 64 66 69 71 74 69 68 72
96 97 96 95 92 94 88 90 90 90 92 91 90 82 89 86 82 73 65 61 58 56 54 58 58 60 61 62 67 72 71 72 73
95 96 93 94 94 92 94 89 72 55 47 47 52 67 66 65 69 72 67 54 52 51 51 53 55 57 60 62 65 64 66 67 68
90 94 96 96 92 70 56 52 48 45 43 48 52 52 54 54 60 73 59 52 51 50 53 54 57 56 55 56 57 58 59 60 61
86 74 58 52 51 50 48 47 49 52 48 39 41 48 54 49 67 43 55 54 52 50 53 53 53 51 51 52 53 53 54 54 54
58 56 54 55 50 44 42 47 50 46 43 41 41 48 49 58 43 40 50 57 50 51 50 50 48 49 48 50 50 49 51 53 56
51 51 49 45 49 50 52 51 52 49 50 46 48 53 48 69 34 44 51 58 46 48 48 46 46 47 47 49 48 50 52 54 56
48 50 51 46 48 49 48 50 60 55 47 39 50 47 54 60 31 45 51 47 46 49 41 45 45 45 46 48 50 52 53 54 52
43 46 46 45 46 46 45 46 52 62 62 42 39 58 61 61 42 50 43 43 44 51 42 50 48 44 44 48 51 51 54 54 52
44 49 45 45 44 46 42 50 48 59 64 58 58 62 58 60 49 47 50 42 41 51 39 47 51 46 46 49 48 50 54 54 54
40 44 45 42 45 46 47 46 48 55 68 64 74 60 48 52 35 49 50 45 50 41 26 42 46 47 55 56 46 51 54 54 55
41 42 44 45 49 53 52 49 52 55 57 68 53 45 51 75 56 49 60 41 50 37 42 44 43 45 55 52 54 55 50 54 56
40 41 42 44 48 46 47 43 52 56 60 58 49 62 73 59 62 57 41 49 33 42 51 48 48 51 50 53 52 50 50 54 59
38 38 40 42 48 44 44 45 47 55 57 62 65 66 66 71 79 55 56 39 37 38 47 56 43 43 51 59 60 50 52 56 60

GFSFLT1_sfc_rhum_039.txt.gz
RH
62 63 65 66 63 61 60 59 59 60 62 63 64 65 66 69 61 63 63 64 70 64 59 63 60 58 61 63 64 63 62 70 76
64 67 68 68 65 64 62 60 61 62 66 66 67 68 76 64 65 67 69 70 79 72 65 61 62 61 61 61 66 56 60 62 65
66 70 71 70 66 64 65 66 66 67 66 66 68 76 84 67 65 68 69 78 80 74 68 68 64 64 64 60 59 60 60 64 66
75 74 71 70 67 68 70 70 68 66 67 69 73 83 86 65 63 65 62 78 79 74 72 71 70 68 67 64 66 65 65 65 65
81 81 79 72 70 71 73 72 71 70 73 77 81 87 86 64 65 63 62 80 76 73 71 70 72 73 72 73 70 68 67 68 68
68 83 88 82 76 75 76 74 77 84 86 85 85 84 61 61 60 60 74 68 65 66 66 65 64 64 66 68 72 73 72 69 70
67 78 82 77 81 81 79 77 77 73 60 61 73 58 58 56 55 50 64 60 58 58 57 59 60 62 63 63 65 70 70 73 75
65 65 64 66 80 64 65 64 62 64 50 45 44 45 40 38 39 48 62 55 53 51 53 54 56 59 62 66 65 65 67 68 70
66 63 64 66 63 64 66 57 46 43 38 37 35 34 33 32 34 44 60 54 51 49 52 55 61 57 58 59 60 61 63 63 63
62 65 67 66 59 49 49 45 40 34 26 23 25 28 30 28 39 27 63 55 53 53 56 55 56 54 54 55 56 55 56 56 57
79 58 56 53 48 44 39 35 32 27 23 21 24 30 26 36 29 31 40 54 53 53 54 53 52 53 52 52 52 52 53 53 57
61 55 54 48 39 32 30 32 29 26 24 21 25 28 25 39 27 32 33 32 52 52 51 50 50 50 51 51 50 50 52 53 55
54 49 40 38 33 32 30 32 32 28 27 24 25 26 31 25 29 32 32 31 29 37 46 44 44 46 47 49 50 51 52 53 56
46 44 34 29 31 33 29 34 36 32 28 26 25 32 37 27 27 30 32 32 34 31 35 42 42 44 45 49 51 52 50 52 54
39 38 32 31 31 29 33 30 34 32 34 26 23 37 42 33 30 28 28 29 32 31 29 26 25 41 45 49 50 50 53 53 54
34 33 32 32 31 28 25 31 32 34 37 30 29 32 34 40 38 25 30 31 31 29 23 20 22 25 42 45 48 51 52 54 54
31 32 33 31 32 30 29 31 32 34 43 33 38 32 24 31 26 35 32 30 28 25 21 22 24 27 28 37 48 50 54 55 56
32 33 32 34 34 34 35 36 39 34 40 37 30 28 28 38 29 28 33 27 27 24 25 25 25 28 29 37 40 48 52 55 57
30 32 31 32 34 33 33 32 34 37 35 36 31 39 36 31 30 31 28 29 25 28 28 26 28 30 31 39 47 50 53 56 60
31 32 35 33 33 33 33 33 34 32 36 37 38 38 35 42 45 33 30 29 28 29 29 29 29 30 33 36 41 49 55 59 61

GFSFLT1_sfc_rhum_042.txt.gz
RH
62 65 68 66 64 62 60 59 60 63 65 66 64 65 67 72 48 51 51 54 71 71 64 61 63 61 60 62 63 64 64 63 70
66 68 70 69 65 64 63 62 63 63 66 68 67 70 77 55 48 50 53 55 76 71 68 66 63 63 64 63 62 67 58 61 62
68 72 72 70 66 65 66 67 67 67 66 66 69 74 81 53 48 52 54 68 75 74 70 69 70 68 66 66 62 60 60 61 64
70 74 72 71 68 68 70 70 68 66 67 70 75 81 84 56 49 50 48 79 77 75 72 72 72 72 72 68 67 67 67 66 67
82 81 77 71 70 71 73 72 71 72 75 79 81 82 82 47 50 48 54 76 69 67 68 67 66 68 70 73 73 74 70 69 69
62 82 84 80 74 74 75 75 80 80 80 79 81 84 45 45 47 46 66 63 61 61 60 60 62 63 66 65 68 72 75 72 74
48 70 77 74 78 76 75 74 73 72 44 47 67 40 41 40 42 40 63 58 56 54 55 56 58 60 63 69 66 68 70 72 73
41 45 46 49 73 48 54 53 48 47 38 36 35 34 33 32 33 45 58 54 52 51 53 55 63 60 60 61 62 63 65 66 66
46 43 48 50 46 50 51 43 41 37 32 28 28 27 27 25 25 38 59 52 48 52 56 59 59 56 56 58 58 58 58 60 61
46 46 46 48 48 43 42 39 35 29 24 21 20 22 21 20 23 22 63 54 52 55 56 54 55 54 54 54 54 54 55 57 58
55 55 53 49 44 41 36 31 28 25 19 17 17 19 18 21 23 22 36 57 55 54 52 52 51 52 51 52 53 52 53 54 56
61 53 50 42 34 28 27 26 22 20 19 18 17 18 16 24 22 24 24 31 52 49 48 45 44 46 47 48 49 50 53 54 53
53 48 41 32 30 26 24 23 24 22 21 19 18 18 20 21 22 25 23 25 21 33 43 45 44 45 45 47 49 50 51 51 52
46 36 33 25 26 26 22 26 23 24 22 19 17 22 26 24 19 23 23 27 27 24 26 32 31 38 45 48 49 50 51 52 54
40 31 26 24 25 24 25 25 24 23 22 17 16 25 29 24 24 23 18 23 26 24 24 20 20 29 37 43 46 52 53 52 53
34 28 25 25 24 22 20 23 25 26 25 22 20 23 24 31 29 24 20 24 23 21 18 17 17 18 32 35 44 51 53 54 55
33 26 26 24 23 23 22 24 26 26 28 25 28 24 20 23 26 20 23 20 21 19 18 19 19 21 22 29 44 46 52 56 57
30 26 25 25 25 27 27 28 30 27 28 26 25 25 24 24 19 21 19 21 20 20 22 22 21 22 22 29 32 42 52 57 60
25 24 24 25 25 26 26 23 24 26 27 27 22 29 24 24 23 20 19 20 19 22 23 22 22 23 24 33 39 44 50 58 62
27 24 26 25 25 26 27 26 25 22 27 28 27 26 25 26 31 30 22 21 21 22 23 23 24 23 24 27 34 44 54 61 64

GFSFLT1_sfc_rhum_045.txt.gz
RH
62 66 67 64 63 62 59 60 63 65 69 67 65 65 68 76 47 46 54 52 70 70 65 63 61 62 62 59 61 64 65 64 64
67 70 71 66 65 64 64 64 64 66 65 66 68 75 75 58 46 46 50 60 69 72 66 66 68 67 65 65 67 62 66 63 61
70 72 72 68 66 67 68 68 67 67 67 67 70 77 81 55 45 49 52 73 70 72 68 69 72 72 71 68 66 66 62 62 62
72 74 73 69 68 69 71 70 68 66 67 72 76 80 81 62 47 48 51 78 71 69 70 68 67 68 69 72 74 72 68 68 69
80 82 78 71 70 72 73 72 72 73 75 77 78 79 82 58 48 54 61 67 64 63 63 62 63 65 68 67 70 73 75 75 76
69 84 85 78 74 74 75 76 78 77 79 75 75 82 49 45 51 54 67 62 60 59 57 59 60 62 66 71 70 70 72 73 74
55 70 82 76 76 75 73 70 71 76 49 68 69 41 37 37 40 50 60 57 54 53 55 57 64 65 64 65 66 67 68 68 68
46 51 52 56 73 54 62 63 57 44 39 39 37 36 34 34 35 53 59 53 49 49 54 64 62 59 58 60 61 60 60 62 62
42 44 48 51 48 49 58 47 41 38 33 30 28 28 29 27 28 56 63 56 53 53 59 58 58 57 57 57 57 56 58 59 60
44 44 45 46 49 48 45 41 37 33 29 26 23 23 22 21 26 37 65 57 57 57 57 55 55 54 53 54 54 55 55 56 57
47 48 51 49 46 44 39 36 34 31 24 21 18 18 21 20 25 27 49 59 57 53 52 48 46 46 46 46 47 49 51 54 55
53 51 53 47 39 34 33 30 27 24 23 21 19 19 18 21 22 28 30 48 52 47 46 44 44 46 46 46 47 49 50 52 52
53 52 47 38 36 32 30 27 26 26 24 22 24 21 23 22 21 26 27 34 28 46 38 37 38 38 45 50 49 50 51 51 53
50 46 39 33 32 30 25 28 24 26 26 25 21 28 30 27 20 24 26 31 33 32 30 27 30 28 35 45 48 50 52 54 54
46 39 33 30 30 28 29 28 26 25 25 18 19 28 31 33 33 27 22 25 28 28 31 30 27 30 28 37 41 48 53 54 53
41 36 32 30 28 26 23 26 28 30 28 30 31 30 30 34 34 33 26 26 26 25 24 23 24 23 31 32 36 48 50 52 56
35 35 32 27 26 25 25 26 30 30 31 29 36 38 32 30 32 29 25 24 26 23 22 22 24 27 28 34 38 39 46 57 57
45 43 31 30 31 34 32 33 37 36 33 29 32 36 36 31 26 26 24 24 27 25 26 25 25 25 27 32 35 39 46 53 59
34 31 29 29 31 31 31 26 27 34 33 33 23 36 30 30 30 28 25 24 21 25 26 25 26 27 30 34 36 39 43 53 61
29 33 34 30 30 28 30 28 27 24 31 32 32 30 30 28 34 38 31 26 25 26 25 25 26 27 30 34 35 37 46 55 61

GFSFLT1_sfc_rhum_048.txt.gz
RH
65 67 64 64 63 61 62 64 64 68 68 67 67 67 70 80 72 65 68 78 67 66 65 65 65 62 62 63 61 61 64 66 63
69 71 66 66 64 64 65 66 67 68 68 66 71 75 78 74 72 65 77 78 68 70 69 67 70 70 69 67 65 66 63 63 63
72 73 69 67 67 68 70 69 68 68 68 69 73 77 82 69 63 63 85 77 68 70 64 72 68 69 71 72 74 67 66 66 65
75 75 71 69 69 72 72 70 69 67 70 73 77 82 83 86 66 61 70 74 65 64 65 64 65 68 68 69 72 74 74 75 75
82 84 79 72 73 75 75 73 72 73 75 76 79 81 82 87 62 65 67 66 62 61 60 62 62 63 69 72 72 72 74 75 76
85 83 84 82 77 76 76 76 78 82 83 80 78 80 70 51 59 68 65 60 57 55 58 59 65 70 67 68 69 70 70 69 69
70 88 88 83 82 81 77 74 76 78 68 78 81 74 53 56 63 70 60 56 53 53 58 66 64 62 62 63 63 62 62 63 63
74 85 85 91 88 83 81 79 71 54 54 53 52 48 49 50 63 61 57 51 46 51 65 61 61 59 59 60 60 58 59 60 61
63 71 72 74 72 69 64 57 53 50 44 40 36 36 40 36 59 70 63 55 50 60 59 59 58 57 56 56 56 57 57 58 58
64 68 67 72 62 65 59 56 52 47 39 36 30 28 32 28 48 76 74 65 60 59 56 54 51 49 48 47 48 50 50 53 54
68 70 71 69 64 61 60 55 46 44 33 31 27 28 30 28 32 65 75 62 56 54 49 47 46 46 46 46 46 48 49 52 54
75 74 72 67 58 52 46 41 38 39 34 35 29 28 28 27 30 43 65 64 56 46 43 41 41 42 45 48 48 49 50 52 52
73 74 69 52 54 49 45 43 43 41 38 38 35 33 34 33 32 36 43 54 48 45 37 33 33 34 37 44 49 50 52 54 56
70 67 56 51 49 45 40 42 40 41 41 34 30 38 40 36 26 35 34 36 39 43 32 30 33 29 34 37 43 47 52 54 56
68 58 52 48 46 42 45 41 40 41 41 26 29 40 44 40 40 37 30 37 33 35 32 36 36 34 33 38 40 42 51 51 55
55 56 46 45 45 42 36 40 42 47 44 45 44 44 40 46 42 42 40 36 33 31 32 34 36 36 33 35 37 43 44 50 57
53 50 44 39 37 34 33 42 43 46 43 42 50 50 45 41 39 49 34 33 32 31 27 30 30 35 40 42 36 38 44 51 55
70 68 51 37 42 46 42 43 46 50 45 39 48 49 52 45 40 36 40 30 39 34 34 32 31 33 37 41 42 37 42 48 55
57 62 50 39 47 44 42 39 39 48 46 46 35 45 42 46 46 42 37 33 29 35 38 35 33 33 40 42 40 37 40 46 54
51 43 47 42 44 37 40 39 37 39 49 48 47 42 45 42 48 55 48 42 39 39 40 38 39 35 36 44 42 36 40 48 55

GFSFLT1_sfc_rhum_051.txt.gz
RH
65 63 64 64 65 67 68 68 69 69 68 68 68 69 70 79 69 69 79 80 67 66 67 60 66 66 64 62 64 63 62 65 65
69 66 66 64 64 65 66 66 68 70 69 71 72 72 77 75 77 80 86 81 66 66 62 71 71 73 72 72 68 65 66 61 64
73 68 68 68 68 69 70 70 69 70 70 70 73 75 80 76 70 82 82 76 67 68 68 67 67 69 69 71 75 75 71 69 69
75 72 69 69 71 72 71 70 69 70 72 74 75 82 82 89 71 66 72 73 63 64 62 65 66 65 72 73 74 76 77 77 78
81 83 78 72 73 76 75 74 72 73 74 75 80 80 80 79 66 68 71 66 61 58 61 61 67 72 71 71 72 69 70 70 70
86 87 84 82 78 78 77 76 78 83 83 82 81 80 77 71 67 75 69 58 55 56 59 67 66 66 67 66 65 64 65 66 66
80 88 87 85 84 83 78 77 78 80 82 88 83 72 59 70 71 73 60 52 49 56 68 65 62 62 63 62 61 61 61 62 64
94 98 96 96 92 91 88 85 81 61 80 73 48 44 47 67 68 67 58 51 50 66 63 62 60 59 59 59 58 58 59 60 61
91 94 96 95 92 91 88 83 58 53 46 39 35 35 37 53 69 74 66 52 55 62 59 58 54 53 51 51 51 51 52 54 56
77 84 83 87 84 80 71 60 56 46 36 33 29 31 34 51 70 91 76 68 62 58 54 50 49 48 48 48 48 49 50 52 55
72 79 82 77 72 69 64 60 52 40 34 34 30 31 32 40 69 81 82 64 58 53 49 46 45 45 45 48 49 49 51 53 53
80 78 77 72 64 54 46 44 41 41 35 35 33 31 31 34 52 74 76 69 58 44 39 37 38 39 40 45 49 50 52 55 56
78 76 74 67 62 54 48 46 44 44 42 39 37 36 38 35 42 62 64 60 54 47 35 33 34 33 38 40 44 47 52 54 55
72 74 66 58 52 49 40 43 42 43 42 35 33 43 45 38 35 42 43 47 50 48 34 36 35 34 36 40 44 43 47 52 54
69 64 60 53 49 50 44 40 46 45 42 27 35 45 49 45 44 39 35 40 37 38 35 39 37 33 33 36 40 42 47 48 52
61 60 54 50 46 43 40 46 43 45 45 43 43 49 46 46 46 48 44 39 36 33 34 36 37 36 34 34 38 40 43 48 50
58 54 51 47 44 40 38 38 48 44 44 39 56 46 41 44 45 54 40 38 36 32 28 31 32 37 41 44 36 36 40 46 50
63 65 62 45 44 46 44 44 46 50 46 42 46 47 48 47 42 43 44 35 42 37 40 35 34 34 38 42 42 39 39 44 49
63 69 60 61 57 48 45 41 43 50 48 46 39 48 45 39 33 42 44 40 34 40 42 42 38 36 42 43 46 41 38 43 48
60 53 49 57 63 56 46 38 39 42 49 52 50 45 50 47 49 49 50 46 43 43 46 43 43 40 42 49 48 44 39 44 49

GFSFLT1_sfc_rhum_054.txt.gz
RH
62 63 64 71 73 72 70 69 68 68 68 68 66 68 72 74 78 73 80 82 67 62 56 59 69 70 67 65 64 64 66 64 68
64 65 65 66 69 70 69 70 70 69 71 72 71 71 76 81 83 86 87 85 68 68 72 71 69 72 72 75 74 66 66 66 62
67 68 65 65 68 68 68 68 69 70 70 69 70 73 82 80 78 85 82 75 65 67 67 68 69 69 72 73 76 78 78 76 78
70 69 69 69 70 71 71 69 69 70 71 72 73 79 82 88 76 68 74 74 65 63 65 65 65 73 72 71 71 73 73 73 74
79 79 77 72 73 74 73 71 71 72 73 73 78 79 81 84 76 76 80 66 60 63 62 68 70 71 70 67 66 65 67 69 69
89 87 84 81 77 77 76 75 76 82 84 82 80 78 78 78 75 80 71 58 58 60 68 67 65 66 66 64 64 63 64 65 68
86 90 87 84 84 84 78 78 82 84 87 91 78 60 74 72 74 74 62 50 53 68 67 63 63 63 63 61 60 60 61 63 64
97 98 96 97 94 96 92 90 86 75 88 66 49 51 68 70 72 70 64 51 56 62 62 61 59 57 56 54 54 55 57 59 58
98 99 98 98 97 95 95 94 70 58 52 44 39 39 51 68 69 74 63 52 66 61 58 54 52 50 49 49 50 50 50 53 55
94 97 98 98 96 94 94 77 61 44 35 33 32 37 42 67 80 96 79 73 64 59 52 50 50 48 47 48 49 50 51 53 54
88 91 90 93 92 87 76 65 54 40 36 32 31 34 40 65 83 92 87 70 60 53 48 44 42 42 42 46 50 50 52 55 56
79 84 90 84 78 69 58 45 43 40 36 35 33 33 34 46 75 84 80 74 62 45 40 37 37 36 39 42 44 47 52 54 55
81 84 82 74 66 56 51 46 45 45 42 38 38 39 40 40 75 73 69 64 58 46 36 33 33 36 38 40 45 44 48 52 54
80 80 79 69 60 54 46 48 44 44 42 37 36 45 48 43 46 66 59 59 58 50 37 38 35 33 34 38 42 44 44 49 50
79 78 68 58 54 50 45 42 47 45 41 29 38 49 53 47 50 47 39 49 44 44 38 39 38 32 31 33 37 42 43 45 49
73 67 58 53 48 47 39 45 39 43 47 42 45 47 48 46 47 50 45 44 39 37 36 38 39 38 32 33 36 38 41 43 47
76 60 53 48 48 44 43 45 50 47 47 42 54 45 40 46 42 53 46 44 41 35 32 35 35 38 43 45 36 35 37 42 46
78 66 61 56 52 48 44 48 47 49 48 44 46 52 44 47 41 46 44 39 43 42 42 37 38 38 41 46 48 44 38 42 47
78 70 66 69 66 48 52 51 56 56 47 49 39 48 43 34 29 39 44 44 36 41 46 45 42 42 49 48 49 48 45 43 47
78 69 65 69 71 56 54 56 54 54 54 53 50 46 50 47 43 37 46 47 45 45 47 47 49 46 49 56 54 47 47 49 52

GFSFLT1_sfc_rhum_057.txt.gz
RH
62 63 70 70 78 74 73 70 69 68 66 63 64 70 70 76 82 78 83 86 66 60 61 76 75 72 72 72 64 64 68 65 67
63 64 69 74 73 72 71 71 70 70 70 70 69 70 76 86 91 92 89 88 70 70 69 71 71 71 72 76 76 73 68 68 65
66 66 66 71 72 71 70 70 70 70 70 70 70 76 81 83 88 90 89 78 66 67 69 68 68 75 73 74 73 73 77 78 78
68 67 66 68 70 71 70 69 69 70 70 72 75 80 82 90 84 76 84 75 64 66 66 68 74 71 71 70 65 66 69 71 73
74 79 77 72 72 73 72 70 70 71 72 75 78 80 81 87 82 83 82 65 63 63 68 70 70 70 68 67 67 66 67 68 69
87 87 83 81 76 75 74 73 74 81 83 81 79 75 88 80 78 82 71 59 60 66 69 66 67 67 65 64 63 63 63 65 66
90 90 87 83 84 84 78 78 83 86 94 90 63 78 77 77 75 75 63 51 61 68 65 65 64 64 61 60 59 60 61 62 62
98 98 97 97 94 97 93 93 91 84 92 57 55 75 74 77 76 73 66 50 67 61 63 61 58 56 54 53 53 53 54 56 57
99 99 98 98 98 96 97 97 78 65 64 46 44 53 69 72 71 73 63 59 64 61 56 54 52 51 50 50 50 52 52 55 55
99 98 98 98 98 97 97 90 63 47 39 36 37 39 63 67 88 97 81 75 64 58 53 51 49 46 46 49 51 52 54 56 57
98 98 98 98 98 97 94 76 55 41 36 33 35 40 63 77 90 95 89 73 61 54 48 43 42 41 42 46 47 49 54 56 57
95 97 98 97 96 90 75 54 44 42 37 36 33 34 46 74 87 88 84 75 64 47 41 39 38 39 40 42 46 46 51 54 55
94 94 95 89 85 75 58 50 47 46 42 39 41 42 42 57 83 80 75 66 60 46 38 35 35 35 36 40 43 45 44 49 51
85 88 92 80 72 63 51 51 47 45 42 38 41 48 50 53 67 71 63 62 58 51 38 37 35 33 34 37 40 42 43 46 48
81 89 84 72 65 59 51 47 48 45 41 32 41 53 56 51 62 66 48 60 51 47 42 40 40 36 31 33 36 41 42 44 47
78 82 76 66 58 50 44 46 40 42 47 46 48 54 53 49 52 50 47 46 41 37 36 39 40 40 41 38 37 38 40 40 44
81 80 70 61 57 47 44 45 49 46 49 44 54 50 46 50 48 58 48 47 44 36 35 36 36 40 44 49 45 46 41 41 45
83 81 69 58 52 52 57 51 46 50 48 48 51 54 47 52 43 51 47 43 44 43 41 40 39 40 44 50 54 52 48 47 48
92 88 75 71 80 74 76 66 63 52 45 50 42 49 48 37 31 43 47 44 37 40 45 45 44 45 53 54 54 49 50 50 53
92 88 83 78 80 80 74 78 68 50 55 54 52 49 50 42 37 35 44 48 47 46 46 48 48 46 50 52 54 49 51 54 55

GFSFLT1_sfc_rhum_060.txt.gz
RH
63 66 68 76 80 81 78 75 72 70 66 63 70 71 72 76 83 80 86 88 66 67 72 71 75 73 73 75 63 64 66 66 65
65 68 74 68 72 74 72 71 71 71 70 66 70 71 78 88 90 91 90 88 68 68 72 70 72 74 75 74 76 79 78 77 77
66 68 75 74 72 72 72 71 71 72 70 70 71 77 81 85 92 91 91 79 66 68 68 68 72 72 69 68 68 71 74 78 79
66 67 69 74 73 73 72 70 68 69 70 72 76 80 83 93 88 81 89 74 66 65 72 71 72 68 68 68 68 68 66 71 72
74 77 75 72 73 73 72 70 70 72 75 76 77 82 85 89 86 85 84 67 63 66 71 70 67 68 67 66 66 66 67 68 69
86 87 83 80 76 74 73 71 75 83 85 81 74 80 88 83 82 84 72 62 63 70 67 68 66 66 64 63 63 64 65 64 64
90 90 86 83 83 82 76 77 84 89 96 78 77 84 83 80 76 76 64 56 70 68 67 65 64 61 59 58 58 59 59 60 59
98 98 97 97 94 97 94 95 95 91 89 59 79 78 77 80 78 74 68 57 67 65 63 60 57 55 54 54 55 55 56 58 58
99 99 98 98 98 97 98 97 77 92 57 50 57 68 73 71 71 72 60 68 63 62 57 54 54 52 52 53 54 55 56 58 59
99 99 98 98 98 97 98 92 65 54 44 41 40 52 65 68 91 97 83 75 65 56 54 53 48 47 49 52 52 53 57 58 59
99 99 99 98 98 98 97 84 54 43 36 37 40 48 68 85 92 95 92 74 61 54 49 46 44 43 45 45 47 50 54 56 57
98 99 99 98 98 96 90 64 47 44 37 35 35 45 69 84 90 92 87 78 66 50 44 42 40 41 41 44 45 46 48 50 53
97 98 98 98 98 97 80 56 50 48 44 41 41 42 46 78 89 87 76 69 60 50 41 38 37 36 37 39 41 42 44 45 48
94 97 97 95 94 87 66 55 50 50 45 40 44 52 49 68 74 80 66 68 58 54 45 42 37 34 34 36 38 41 42 43 45
91 96 96 89 85 76 59 51 49 48 43 32 43 56 56 58 79 71 58 65 53 52 46 41 41 41 34 34 36 39 41 41 43
86 90 93 85 77 68 51 50 44 46 46 48 52 56 57 52 58 63 54 53 48 42 40 41 42 41 42 43 41 43 43 41 43
85 87 88 82 76 62 49 48 50 46 52 46 54 48 48 55 52 60 50 53 48 39 37 39 39 44 47 51 46 46 45 45 47
88 88 89 78 69 69 65 63 51 54 49 49 53 56 52 55 48 56 56 50 49 46 42 41 42 44 51 59 61 50 48 49 50
90 90 89 83 80 79 80 74 76 76 68 60 43 44 46 47 38 46 49 47 41 44 48 46 46 49 55 50 51 49 50 52 54
94 90 91 85 84 88 80 82 78 78 73 68 71 57 46 40 36 33 45 51 50 49 48 50 50 48 53 55 56 50 51 53 56

GFSFLT1_sfc_rhum_063.txt.gz
RH
64 64 71 79 80 81 79 78 72 66 64 68 71 70 74 73 57 62 67 66 71 73 71 71 76 75 74 68 68 65 65 67 64
66 68 74 79 80 78 75 73 72 71 66 71 70 74 79 57 60 65 68 67 66 68 69 72 72 71 70 72 73 78 79 80 79
66 73 69 70 75 74 74 72 73 71 70 71 73 77 79 66 63 67 65 71 66 65 68 72 69 68 66 68 68 70 74 74 75
67 72 75 73 71 74 74 73 70 71 71 73 77 80 85 63 61 61 58 75 64 69 72 73 71 68 68 67 66 66 66 68 69
72 77 78 76 75 74 72 70 71 73 75 76 78 84 84 59 63 59 55 68 63 70 69 66 64 66 66 66 66 66 66 66 66
64 79 82 80 77 74 72 72 78 84 85 76 78 82 59 55 54 54 72 62 69 67 68 64 65 64 63 62 63 63 62 61 62
66 77 86 84 83 81 75 78 85 79 61 53 72 57 55 51 50 46 64 63 68 66 66 64 61 59 58 57 57 59 60 60 60
68 69 69 73 84 69 74 76 68 68 54 48 53 53 49 45 46 54 65 68 67 63 61 58 55 55 55 56 56 58 59 59 60
78 71 74 77 74 76 77 70 61 64 47 43 48 46 45 41 42 43 62 71 65 59 55 54 53 52 54 55 56 57 58 59 59
79 78 74 75 76 72 76 68 52 56 37 33 39 42 40 41 47 55 83 76 64 57 55 51 47 49 51 51 52 56 57 57 56
79 80 80 75 74 72 71 64 48 44 32 30 29 36 41 48 62 63 61 75 64 55 50 46 43 44 46 47 48 52 53 54 55
75 77 82 76 72 72 71 58 39 34 29 28 28 35 41 52 60 62 56 56 68 54 46 44 43 41 42 43 46 46 45 49 50
76 77 79 76 76 72 69 56 41 36 32 30 28 29 41 49 56 59 51 48 41 48 43 42 37 38 37 40 40 42 43 43 47
74 75 75 77 78 76 69 53 43 41 37 34 32 33 33 46 53 53 49 47 43 38 45 44 40 35 34 36 38 41 42 42 44
77 75 74 78 79 76 67 56 42 39 37 23 30 37 37 42 52 50 42 45 41 40 43 34 36 43 38 36 38 40 43 41 42
79 77 73 76 78 73 65 53 45 40 34 36 38 39 41 38 46 49 42 45 39 34 30 27 26 27 42 42 41 45 44 43 44
80 77 78 78 76 72 61 50 46 40 38 37 40 40 37 40 39 43 40 39 36 32 29 27 29 31 30 40 45 44 43 45 47
80 77 80 76 74 75 66 55 54 47 42 39 40 47 44 41 38 42 41 38 38 32 31 30 31 30 33 41 49 49 49 50 51
84 80 82 83 84 79 77 67 61 67 61 49 39 42 40 40 42 36 39 38 36 35 33 30 32 34 36 45 48 47 49 50 53
86 83 82 82 82 81 77 77 68 66 67 66 56 43 38 33 36 42 46 39 38 35 32 31 31 35 36 39 45 48 50 52 56

GFSFLT1_sfc_rhum_066.txt.gz
RH
63 62 73 80 78 73 81 75 67 64 68 70 70 71 71 70 49 51 60 62 75 71 73 78 75 75 74 75 73 64 66 68 64
65 66 78 78 81 80 77 72 69 66 71 72 71 73 74 44 48 53 58 60 67 67 71 71 71 68 69 71 74 77 76 79 78
67 69 78 80 78 76 74 73 72 68 71 72 74 76 74 51 46 52 54 69 64 66 71 69 68 68 67 68 70 70 71 72 73
69 72 72 74 77 76 74 74 70 71 71 73 77 80 80 46 45 44 51 73 67 72 72 71 68 66 67 67 67 68 68 69 70
72 81 80 77 76 75 72 70 71 72 74 76 78 84 79 45 49 44 52 64 69 70 67 64 63 65 66 66 66 66 65 65 66
60 71 82 81 78 74 72 73 78 82 83 77 82 86 44 43 42 42 73 64 68 68 65 63 64 62 62 63 62 61 61 61 62
43 66 85 81 82 80 74 80 83 80 45 50 74 45 44 42 42 41 61 70 67 66 66 63 60 58 57 57 59 60 60 61 61
45 50 56 56 79 52 63 68 51 49 42 41 40 41 40 37 37 50 61 70 67 64 61 58 56 55 55 56 58 58 60 60 59
46 41 46 50 48 48 50 47 49 50 44 40 39 38 37 34 34 43 62 72 64 60 56 55 53 54 55 56 56 58 59 58 57
50 50 46 46 45 46 49 49 48 48 42 36 37 37 34 32 30 28 78 77 64 58 56 52 50 51 52 51 54 56 56 57 57
52 56 57 49 47 46 48 48 46 46 38 34 31 32 31 30 34 33 54 76 66 56 52 48 45 48 47 48 50 52 51 53 54
55 53 57 59 47 46 48 50 46 41 37 34 28 28 28 32 36 38 41 55 70 59 49 45 44 43 44 43 44 46 44 47 48
55 54 54 54 55 50 50 51 47 42 36 32 28 27 31 30 32 38 38 39 36 52 50 46 40 39 39 40 40 41 41 42 44
53 52 52 52 60 57 53 52 49 47 40 34 30 28 28 32 31 34 38 39 36 33 51 51 42 37 36 35 36 38 40 40 40
55 52 51 51 62 63 60 55 50 47 43 30 29 30 28 28 33 34 34 36 38 34 35 36 33 41 37 36 37 38 42 41 42
58 55 53 52 57 64 63 58 55 50 42 36 37 33 31 30 31 34 33 35 34 31 32 26 23 29 42 39 38 42 40 41 43
61 62 58 55 58 60 65 61 58 52 42 47 46 48 36 31 29 33 33 32 32 30 28 24 24 25 24 34 41 40 42 46 48
67 68 67 67 61 62 65 64 62 59 46 41 48 53 54 37 33 33 34 33 34 30 28 27 25 24 24 38 45 46 45 46 48
74 73 69 72 73 68 71 68 61 60 55 43 34 40 35 38 40 34 34 33 32 34 31 27 27 27 29 39 48 46 46 48 50
86 78 76 74 74 73 72 76 67 66 61 56 48 41 36 32 44 40 38 37 35 33 33 28 27 28 30 33 41 45 47 50 53

GFSFLT1_sfc_rhum_069.txt.gz
RH
62 60 70 79 80 79 81 71 66 68 70 69 69 68 66 74 45 60 65 66 74 73 75 74 73 75 74 78 69 74 75 67 67
65 73 79 79 80 81 75 68 66 71 72 70 71 69 71 53 53 65 63 64 65 69 72 71 69 69 72 73 74 74 76 78 77
68 74 80 80 79 78 75 73 69 70 72 72 74 71 76 48 44 67 63 70 65 70 69 69 67 67 67 69 71 71 72 72 72
69 70 78 80 78 76 75 73 70 69 73 74 76 74 76 52 43 53 56 76 71 72 70 69 66 64 67 68 69 68 69 70 70
75 74 77 79 79 77 75 71 71 72 74 76 78 81 78 44 45 51 58 69 70 68 66 64 66 66 66 66 64 64 64 65 64
63 73 81 82 79 74 72 72 76 82 83 79 80 84 47 41 42 50 71 70 67 67 65 65 64 62 62 62 62 62 62 62 62
40 67 84 82 82 80 74 78 83 84 50 59 76 54 42 42 44 53 70 69 66 67 66 62 60 58 58 60 61 61 61 62 61
43 53 60 64 81 62 67 73 59 50 41 43 43 41 39 39 40 58 66 69 67 65 62 58 58 56 57 58 60 60 60 59 60
39 43 48 51 52 47 52 51 47 45 42 38 38 39 38 38 38 53 69 74 65 60 58 56 55 56 57 57 59 59 59 58 60
41 39 40 44 43 42 47 45 44 46 42 37 38 39 38 36 35 38 62 79 67 59 56 54 52 54 54 54 58 56 57 57 59
45 46 45 43 42 41 43 45 45 45 43 38 37 37 36 33 34 34 60 79 71 59 55 50 49 51 49 50 54 52 52 52 55
46 48 60 57 43 41 43 44 44 44 42 38 34 34 32 33 35 37 53 63 73 65 52 49 47 48 47 47 47 48 45 47 48
49 50 49 54 54 45 45 47 50 47 44 41 37 33 33 32 34 37 38 53 49 60 58 50 47 45 42 44 43 42 41 42 43
49 50 49 46 55 55 49 50 50 51 48 45 39 36 37 37 32 34 38 42 44 45 61 61 53 43 41 39 39 41 40 39 40
50 50 49 48 53 68 56 55 52 50 50 41 38 40 40 41 41 37 34 38 44 41 46 49 44 48 41 38 38 38 41 41 40
52 53 51 51 53 63 63 58 58 57 52 52 46 47 42 39 38 40 37 39 43 39 38 40 35 42 46 43 38 41 37 38 41
54 56 58 54 55 56 67 66 66 59 55 56 56 63 50 42 37 37 37 38 40 37 36 36 32 35 37 47 43 37 39 44 46
64 62 62 62 59 61 63 68 70 69 60 52 60 70 68 52 42 38 39 36 39 38 37 35 33 33 37 49 50 49 44 43 44
77 73 69 71 71 66 65 65 68 66 68 57 51 57 49 59 56 45 39 38 36 42 42 35 36 36 40 50 53 50 44 44 47
84 84 83 79 83 78 77 73 73 69 68 66 69 56 54 47 57 54 50 43 40 41 39 35 34 34 39 47 52 47 44 44 49

GFSFLT1_sfc_rhum_072.txt.gz
RH
64 65 77 78 83 83 74 68 70 71 71 70 67 64 69 76 72 79 77 82 73 74 73 71 72 73 76 76 76 76 72 74 77
73 76 81 83 83 79 70 68 71 73 72 71 68 68 75 64 71 73 76 73 70 70 69 67 66 69 72 72 74 74 74 75 74
73 78 84 82 81 76 72 70 72 73 73 73 70 73 76 65 66 67 73 76 70 69 68 67 67 66 67 69 70 70 71 72 73
74 82 84 80 79 79 77 73 70 73 74 75 74 77 77 72 69 59 82 79 71 69 67 67 65 66 68 68 68 68 69 68 69
80 79 86 84 82 81 78 73 72 73 76 77 80 78 80 69 70 66 82 73 69 68 66 66 66 66 66 64 64 64 65 65 65
81 75 84 86 83 78 75 74 78 84 84 82 82 82 78 59 63 74 81 71 69 66 66 65 64 63 62 63 62 63 63 62 62
63 84 84 82 84 81 78 79 86 85 84 90 84 84 76 63 70 80 80 69 67 68 65 62 60 59 60 62 62 62 62 61 62
75 94 91 95 89 88 87 95 93 85 75 76 75 72 67 62 67 71 79 69 68 66 62 60 58 58 59 61 62 62 60 62 62
66 75 84 87 90 86 86 91 82 73 64 64 63 59 60 59 67 74 81 74 67 63 59 58 58 58 59 60 61 60 60 62 62
60 65 67 72 74 72 73 74 67 67 62 56 55 55 55 50 57 71 85 80 68 61 58 56 56 57 56 59 58 58 58 60 61
66 62 64 68 67 65 68 68 69 67 66 56 54 55 52 48 48 66 86 82 74 62 58 54 55 55 53 56 56 53 54 54 56
65 70 73 70 63 60 64 65 67 67 64 61 54 54 51 48 47 75 90 84 77 70 57 53 52 53 52 52 53 49 48 49 49
66 71 79 74 76 66 69 70 74 72 71 65 59 52 51 48 50 54 80 78 69 72 66 56 51 51 51 48 48 46 44 45 44
69 73 73 74 77 77 69 72 77 77 73 64 62 52 55 50 45 51 54 77 72 68 69 66 62 54 47 48 46 46 43 41 40
69 72 71 68 79 82 79 75 78 76 75 52 54 56 55 55 56 51 48 56 60 64 66 69 59 58 48 46 44 44 44 42 41
68 70 73 70 74 81 79 81 78 82 76 72 66 64 55 51 52 56 54 54 54 58 60 57 54 56 50 46 45 44 45 40 41
68 71 72 79 80 82 79 76 81 80 81 80 73 74 68 58 48 52 51 53 57 52 53 54 50 55 60 58 47 46 38 42 46
86 81 81 84 81 88 83 86 83 77 84 70 77 90 86 65 57 48 56 52 60 54 48 48 40 47 54 55 53 46 49 44 44
90 92 88 90 91 87 94 87 90 92 84 90 62 76 69 70 65 56 50 52 50 55 53 46 41 40 60 56 60 54 46 42 42
90 89 96 91 90 90 89 94 89 90 89 80 93 80 80 72 74 68 59 55 54 55 48 44 41 39 55 65 62 54 44 42 45

GFSFLT1_sfc_rhum_075.txt.gz
RH
64 72 76 84 84 78 71 70 71 72 70 66 65 68 72 80 82 84 81 86 72 71 70 69 73 76 76 76 74 75 77 77 77
70 74 84 85 83 76 71 72 73 73 71 67 67 69 76 76 82 84 79 80 69 66 68 65 69 69 76 76 76 77 77 76 76
76 76 83 85 79 73 71 74 74 74 72 69 68 72 78 71 69 82 88 78 69 64 66 65 65 65 67 68 68 71 74 74 72
77 82 84 82 79 79 76 74 75 74 74 72 73 75 78 76 74 77 90 78 67 65 67 66 66 68 68 67 68 69 69 69 69
83 87 86 85 85 82 80 74 74 76 76 75 78 78 80 79 76 85 90 73 68 68 67 66 67 66 65 64 64 65 64 65 65
80 88 90 88 86 82 78 76 79 85 84 81 78 81 81 73 77 89 82 71 68 67 67 66 65 64 64 64 64 64 62 63 63
75 85 91 88 86 84 80 81 86 87 94 92 82 86 84 76 83 93 80 70 66 67 64 64 62 63 64 63 63 63 62 63 64
91 96 94 95 92 92 91 95 97 94 90 88 87 82 86 79 82 88 80 69 67 66 63 61 61 61 64 63 63 62 62 62 64
93 98 97 97 97 96 97 99 96 93 87 81 79 77 75 77 81 90 84 75 69 65 62 61 60 61 62 63 61 61 63 63 63
79 88 93 97 97 96 97 97 94 90 83 73 71 68 65 70 74 90 88 82 72 64 60 60 60 60 60 61 61 60 62 63 62
68 78 80 86 86 87 83 84 86 83 77 67 63 63 59 57 68 84 95 84 77 66 61 59 59 59 59 61 59 58 57 59 58
70 72 74 75 76 74 79 79 80 80 74 71 63 62 57 54 62 74 96 89 82 73 62 58 58 58 58 60 57 55 54 53 54
74 79 76 71 72 72 74 78 80 80 80 74 67 63 59 55 56 84 95 93 80 78 71 62 57 57 56 57 57 53 51 51 49
73 77 83 80 83 81 74 79 81 85 81 74 69 62 60 56 51 70 92 88 83 82 78 73 67 63 56 54 54 52 49 48 46
72 78 80 84 86 89 85 79 86 84 80 61 63 65 61 62 62 59 68 83 78 75 76 80 76 68 58 52 52 53 49 46 44
67 74 80 81 84 80 88 83 82 90 83 76 74 70 65 60 60 60 60 66 71 71 70 68 65 65 63 56 50 50 50 47 44
65 72 73 83 86 91 89 88 92 90 84 82 76 74 68 65 56 56 56 60 63 63 62 57 51 56 64 62 55 50 50 44 44
92 88 85 82 84 88 88 89 92 89 93 74 74 90 85 78 66 56 54 57 68 60 57 53 49 51 61 63 63 55 46 44 48
95 95 95 93 94 94 94 92 91 96 94 97 72 83 81 74 74 73 72 66 61 63 60 54 49 51 60 63 62 54 50 46 44
92 94 95 96 96 95 96 96 97 96 93 94 96 92 93 79 84 85 83 71 69 67 61 53 46 48 58 64 61 56 48 43 43

GFSFLT1_sfc_rhum_078.txt.gz
RH
67 70 81 84 80 75 71 71 71 68 68 67 69 74 80 83 89 93 86 84 73 70 68 68 75 77 77 73 76 76 78 75 69
70 76 82 84 80 75 72 72 72 71 70 68 68 72 82 83 88 86 85 79 66 65 67 68 66 71 76 76 77 76 77 77 77
72 80 83 83 76 74 74 74 73 72 72 69 68 77 78 76 85 92 91 76 64 66 66 66 65 65 67 68 72 74 74 74 74
74 80 86 83 78 79 78 76 74 72 72 71 72 77 80 84 90 85 92 77 63 67 66 66 67 67 67 68 68 68 68 68 68
82 88 88 84 83 82 81 78 76 74 75 74 74 78 82 88 90 93 92 72 67 68 66 66 66 65 65 65 66 66 66 66 65
91 93 91 89 87 83 79 78 80 84 84 80 78 81 83 85 88 96 83 70 68 67 66 66 64 64 64 64 64 63 64 64 63
80 95 92 90 89 86 82 81 86 88 95 95 83 89 85 86 92 97 82 69 68 67 64 64 63 64 63 63 63 63 63 64 63
92 97 97 97 94 96 92 94 97 94 94 93 92 88 87 88 93 92 83 70 67 66 64 62 62 63 63 63 62 62 62 64 64
97 98 98 98 98 96 97 99 97 95 93 90 88 85 87 87 89 95 86 76 68 67 64 62 61 63 63 62 61 62 62 64 63
96 97 98 98 98 97 98 98 98 96 94 89 86 80 78 82 86 98 89 82 75 67 64 62 61 62 63 62 61 62 62 62 64
86 92 95 98 98 97 97 97 97 96 92 87 80 78 71 78 80 94 96 86 80 69 63 62 62 62 62 62 61 61 62 61 61
77 82 89 92 94 95 95 94 92 94 87 85 73 71 68 66 72 83 97 93 86 77 64 62 61 61 61 62 60 59 58 58 58
74 75 81 82 87 88 89 89 91 91 91 86 79 71 67 61 65 74 96 97 91 83 75 67 61 62 60 62 60 57 55 54 54
71 77 77 78 80 82 79 85 88 92 90 86 79 72 70 64 55 77 91 96 94 92 84 80 73 68 60 58 59 57 54 53 51
72 80 82 84 83 87 86 83 90 89 87 72 71 75 68 68 68 66 85 96 91 84 84 88 80 76 67 59 57 56 53 51 48
73 78 82 88 83 77 89 87 83 93 90 82 80 75 71 66 69 69 70 91 87 81 74 79 77 73 73 65 56 55 54 51 48
74 77 79 84 91 93 94 91 93 91 90 85 79 78 76 70 63 66 63 65 82 83 72 70 67 67 72 71 67 58 53 52 47
88 84 88 90 89 88 90 93 92 88 97 89 88 89 88 85 72 67 65 65 75 78 76 70 63 60 62 67 69 65 54 50 44
95 95 94 92 96 95 94 93 94 96 96 98 90 90 86 84 87 77 86 75 66 69 70 67 63 56 64 65 69 64 54 43 45
96 95 97 98 98 96 95 96 96 94 92 95 97 96 93 81 83 82 90 90 86 79 81 85 88 85 88 84 68 55 59 64 62

GFSFLT1_sfc_rhum_081.txt.gz
RH
71 76 83 81 79 72 70 67 68 70 70 71 77 81 84 88 95 95 85 85 68 66 67 68 72 77 73 76 76 77 74 66 70
70 79 84 81 76 73 71 69 70 71 70 69 74 80 82 89 94 93 88 78 63 66 67 64 64 64 75 77 77 75 76 76 78
75 78 85 79 76 74 74 70 70 71 69 69 75 82 79 82 94 93 91 75 66 66 66 66 65 65 68 71 73 71 72 72 74
77 81 84 80 78 78 78 74 71 71 69 69 75 81 83 91 96 88 93 74 66 66 66 67 66 66 67 68 68 68 67 66 66
82 89 89 84 83 84 83 77 74 71 72 74 77 82 85 93 94 96 93 71 66 66 65 66 65 65 65 66 65 66 66 65 65
92 95 91 88 86 83 79 78 80 85 86 82 79 82 90 90 96 97 84 69 68 66 65 64 63 63 63 63 63 64 63 62 64
90 95 92 90 88 86 81 81 86 90 95 96 88 90 88 89 95 97 84 69 68 66 65 64 63 63 62 62 62 62 62 61 63
96 99 98 98 96 97 93 94 97 94 94 94 94 91 89 95 97 93 86 70 67 66 64 62 62 63 62 61 60 61 61 62 63
96 98 98 98 98 97 97 98 97 95 93 91 90 90 89 92 95 96 91 79 67 68 64 62 61 63 63 61 60 60 61 62 61
97 97 98 99 98 98 98 98 98 97 95 94 93 90 86 84 92 98 94 86 76 69 66 63 62 62 63 61 60 61 62 61 61
96 97 98 98 98 98 97 98 98 97 95 93 92 90 86 79 90 96 97 90 84 73 66 64 62 62 62 62 61 61 62 62 62
86 94 98 97 98 96 97 97 96 97 94 94 90 83 82 75 85 88 97 95 90 82 67 64 63 62 61 62 61 60 61 60 58
85 88 89 90 97 98 98 97 97 97 96 96 93 81 76 71 75 80 94 98 96 89 80 73 65 63 62 61 62 59 57 56 56
77 79 82 87 93 96 94 96 95 96 96 93 94 87 79 72 61 71 83 96 97 97 87 84 79 73 64 61 61 60 56 55 53
75 80 82 84 90 93 95 92 95 93 94 82 83 87 80 76 75 67 71 92 97 96 94 94 92 81 72 63 60 60 59 53 52
77 79 86 89 84 81 84 88 87 94 94 89 91 82 78 75 73 72 72 90 94 96 95 94 94 80 80 72 62 59 58 54 49
80 82 83 87 91 93 92 92 94 92 95 89 81 84 78 78 70 72 67 72 94 96 93 91 88 84 79 79 75 66 57 57 54
86 86 88 91 93 92 94 95 94 92 97 92 90 87 90 92 80 74 73 73 79 89 93 88 78 70 81 88 83 73 61 53 54
95 92 91 92 95 95 94 97 95 94 92 98 91 93 85 84 87 79 86 82 69 70 78 80 81 86 93 90 90 83 83 81 77
96 96 97 97 97 96 95 96 96 95 93 96 98 98 94 83 90 89 90 85 91 86 85 83 88 87 93 96 94 87 85 82 78

GFSFLT1_sfc_rhum_084.txt.gz
RH
76 79 81 80 76 69 66 70 73 72 73 77 79 80 85 91 95 94 84 84 66 65 64 64 73 74 77 77 77 72 66 69 74
75 83 83 78 74 71 68 70 72 72 72 75 79 82 86 94 95 93 88 79 66 66 65 64 62 63 74 77 76 77 77 78 77
75 83 82 77 75 74 68 70 72 72 71 74 78 80 82 88 94 92 91 76 67 66 66 67 67 65 66 72 71 67 68 70 70
75 83 84 78 77 77 75 71 72 71 71 72 79 82 85 94 96 88 92 76 67 66 67 67 67 67 68 68 67 68 66 64 64
85 88 88 84 84 84 81 76 72 74 74 74 78 82 87 94 95 96 94 70 67 66 66 65 65 65 66 66 66 66 65 65 66
91 94 93 88 87 84 81 79 81 83 85 81 80 86 94 94 97 97 85 67 67 66 65 64 63 63 63 63 64 64 62 63 64
92 95 93 88 88 86 82 81 85 91 95 96 89 93 91 90 96 97 86 67 67 66 64 63 63 62 62 62 62 62 62 62 63
98 98 99 98 95 97 94 94 97 93 95 95 94 92 90 96 97 93 88 71 66 66 64 61 62 62 61 60 60 61 62 62 64
97 99 98 98 98 97 97 98 97 95 93 91 90 90 91 94 97 95 92 84 67 67 64 62 61 62 61 60 59 60 61 61 62
97 97 98 99 98 98 98 98 98 97 94 93 93 92 90 89 90 97 94 90 80 69 66 64 62 60 62 60 59 60 60 60 60
98 97 98 98 99 98 97 98 98 98 96 94 93 93 93 91 86 95 96 92 87 76 68 65 63 61 61 61 59 59 60 60 60
90 97 97 98 98 96 97 97 97 98 95 95 93 93 91 86 83 90 96 96 92 88 71 65 65 64 62 61 60 60 60 60 59
89 94 96 96 98 98 98 98 98 98 97 96 96 95 89 81 77 85 92 97 97 93 86 78 67 65 64 62 60 61 58 58 57
87 89 90 93 97 97 97 97 96 96 96 96 96 96 94 86 69 72 80 90 97 98 92 88 83 77 66 64 61 63 61 57 53
83 87 87 90 94 96 97 96 97 96 95 88 89 95 94 88 83 76 67 79 92 96 96 96 95 86 76 66 63 60 64 58 56
85 85 86 89 88 86 92 94 94 96 95 93 94 92 86 87 83 78 77 76 86 94 97 98 97 95 84 77 66 62 62 62 55
89 87 89 91 92 93 94 93 94 94 97 93 89 88 80 85 81 81 74 74 83 94 95 96 95 95 92 88 82 71 65 74 67
89 89 90 93 92 93 95 95 94 95 97 92 91 93 93 87 78 67 77 77 82 88 94 91 88 86 85 84 88 83 81 83 84
92 90 91 93 96 96 95 96 95 94 94 98 91 93 87 94 92 85 83 85 70 69 81 87 86 84 91 88 90 89 84 82 84
97 97 97 96 97 95 95 97 98 97 97 98 99 98 96 89 93 95 93 82 88 88 90 89 87 86 93 96 94 86 85 82 82

GFSFLT1_sfc_rhum_087.txt.gz
RH
74 75 78 77 73 70 72 74 74 76 78 78 78 83 86 84 65 64 64 59 64 64 66 66 76 78 77 76 74 69 74 77 75
82 81 81 77 72 68 72 73 74 75 78 79 82 86 89 66 63 62 62 61 65 66 66 65 64 64 72 74 74 76 77 78 76
82 82 81 76 72 69 72 73 73 73 76 78 79 82 85 68 64 65 61 72 66 66 67 67 66 63 66 66 67 68 67 68 66
80 86 82 77 77 74 73 72 73 72 74 80 79 83 87 65 64 61 58 76 66 66 66 66 67 67 68 68 69 68 67 66 66
83 89 86 84 84 82 80 74 74 75 74 76 80 87 88 64 67 63 60 70 66 65 65 64 64 65 66 66 67 66 65 66 65
73 88 92 88 88 84 81 79 80 85 84 81 84 85 61 62 63 62 81 67 66 65 65 63 64 64 65 64 64 64 64 64 64
74 83 93 88 89 87 83 83 87 78 62 62 75 58 61 59 63 62 84 67 66 65 64 63 64 63 63 63 63 63 63 64 65
71 73 87 81 87 71 74 76 71 71 60 61 58 59 57 55 59 69 86 75 67 66 64 62 63 63 62 62 62 62 63 63 65
76 76 80 80 76 77 76 74 74 72 68 59 56 57 57 56 60 67 90 86 70 67 65 62 61 62 62 60 60 61 63 62 63
74 76 78 80 79 75 76 73 71 72 68 64 62 60 57 57 56 58 90 90 83 69 67 64 62 61 63 61 59 60 62 60 62
73 74 76 78 78 76 73 71 71 71 70 66 62 62 63 62 62 56 59 89 89 80 70 66 64 63 62 62 60 60 60 61 62
67 70 72 71 72 75 76 74 73 73 71 68 61 59 60 62 60 58 58 64 92 89 75 69 66 65 63 62 62 61 60 61 60
66 64 66 66 70 73 75 74 74 74 70 66 63 63 64 61 57 55 54 61 63 79 88 82 70 66 65 63 60 64 62 62 59
70 67 64 65 70 72 74 75 74 71 70 70 65 64 64 62 60 57 54 56 64 64 81 91 88 82 69 64 63 64 65 62 60
74 72 70 70 73 73 76 75 75 71 68 68 67 64 63 64 64 58 55 52 56 59 66 67 70 89 81 70 65 64 68 64 61
77 75 73 73 73 69 68 70 72 71 72 72 66 64 61 62 61 60 58 57 56 55 57 61 64 66 87 81 70 66 64 69 63
80 77 77 74 73 72 71 72 74 73 74 68 72 74 63 60 61 58 58 57 55 56 60 61 63 67 79 82 84 78 66 69 74
82 81 78 80 79 83 78 80 79 80 86 78 84 90 88 72 64 58 55 54 53 55 58 61 72 68 72 83 83 83 77 76 80
81 81 80 80 85 83 86 84 82 82 84 90 87 83 79 90 84 74 67 70 55 57 55 56 60 68 76 82 90 87 83 77 78
88 85 83 83 85 83 84 86 85 85 86 89 94 92 91 86 95 97 92 73 76 70 66 76 73 73 73 80 87 88 86 81 80

GFSFLT1_sfc_rhum_090.txt.gz
RH
74 73 71 74 77 74 75 75 78 79 78 78 80 83 82 73 50 49 53 50 65 66 67 68 69 76 77 78 76 78 78 78 74
77 76 74 71 73 74 74 74 76 79 79 81 83 85 82 48 47 47 48 56 66 66 67 67 65 67 70 71 72 71 72 71 69
80 78 76 71 70 73 74 74 74 78 79 79 82 83 78 48 46 49 50 69 66 66 66 67 67 68 69 69 69 69 68 68 68
83 81 79 74 70 74 75 74 73 76 79 77 78 82 83 46 47 44 46 75 67 66 65 66 67 67 68 67 67 67 67 67 66
86 88 85 83 80 77 75 74 74 74 77 78 81 84 83 45 49 47 55 69 66 66 65 64 64 65 66 66 66 65 65 65 64
64 85 89 89 87 81 77 76 80 81 82 80 84 84 43 43 46 45 77 68 66 65 63 63 63 64 64 64 64 64 64 65 66
46 75 92 89 89 88 83 82 81 77 42 50 72 42 43 43 46 46 78 68 67 64 64 63 63 62 63 63 64 63 64 65 65
47 53 73 74 82 62 67 66 51 51 37 42 40 42 41 39 43 57 80 79 67 66 64 62 63 62 62 62 62 63 63 65 64
43 45 53 57 56 59 58 51 53 54 48 36 35 39 40 40 42 52 85 84 76 69 66 63 62 63 62 60 61 62 62 63 64
48 49 50 52 52 51 53 51 50 52 50 44 38 38 39 40 40 42 86 86 84 75 69 66 63 62 63 61 60 61 62 61 64
49 50 52 52 51 49 50 48 47 48 48 47 41 39 42 45 46 43 45 83 86 83 72 69 66 64 64 64 62 61 62 62 63
52 46 49 49 47 47 50 51 50 47 45 46 42 37 40 46 46 46 44 49 91 88 80 72 69 67 65 64 65 64 63 63 62
54 52 47 44 48 50 51 50 50 49 48 46 47 47 44 44 45 46 45 47 45 76 87 84 77 69 68 66 65 67 66 66 64
55 53 51 46 51 52 53 52 52 54 54 53 50 49 49 48 46 46 46 47 50 47 76 89 91 85 72 67 64 68 68 66 64
58 55 54 52 53 55 56 58 56 54 52 52 51 50 50 49 49 47 45 46 49 49 50 51 57 92 85 74 66 66 72 68 66
59 57 56 57 59 57 56 56 60 59 57 59 55 54 50 50 48 47 46 46 49 47 46 47 47 51 87 83 76 68 66 74 69
61 61 61 60 62 62 61 60 62 58 56 60 62 66 52 48 48 46 47 47 46 46 48 48 48 50 51 64 85 82 73 71 78
74 68 65 68 67 68 66 65 70 67 68 65 69 80 76 62 52 52 47 46 46 48 50 49 52 54 54 72 84 85 82 74 73
72 70 68 68 71 72 74 71 72 71 72 76 68 67 70 82 89 67 56 52 51 58 50 49 51 54 59 74 83 86 85 76 72
76 74 73 72 70 72 71 74 70 69 73 74 78 82 86 83 93 94 74 66 61 58 57 62 61 62 61 65 79 86 84 79 77

GFSFLT1_sfc_rhum_093.txt.gz
RH
70 68 75 78 79 76 76 79 80 79 79 80 80 80 78 77 44 47 55 57 65 67 70 70 71 74 73 74 76 77 75 72 71
74 71 76 77 77 75 75 78 79 80 81 82 81 78 77 42 43 47 54 62 65 65 66 68 70 71 71 72 72 72 71 71 71
76 74 75 74 75 75 75 76 78 79 80 81 82 80 80 44 46 52 59 72 65 64 66 67 67 68 70 70 70 69 69 69 68
79 80 76 72 75 76 76 75 78 79 77 76 77 79 79 45 46 44 56 75 66 65 64 64 64 65 67 67 66 66 67 66 65
87 87 84 80 78 78 77 76 74 79 79 78 77 80 79 44 46 52 64 70 66 64 65 64 64 65 66 66 65 66 65 65 64
75 83 90 88 83 78 76 78 78 81 82 80 82 82 44 42 45 54 77 69 66 65 63 64 64 64 65 66 65 65 65 66 64
55 78 91 89 89 86 80 80 80 78 47 57 74 53 41 42 46 58 79 68 67 65 63 64 63 63 64 65 65 65 65 65 66
53 68 81 82 85 69 73 71 56 44 36 39 39 40 38 38 42 69 79 77 67 66 64 62 64 62 62 63 62 64 65 64 66
40 48 65 69 63 69 62 49 47 50 44 34 32 35 37 39 42 67 82 80 77 70 66 63 63 63 61 61 62 63 63 63 65
38 41 46 49 49 54 51 47 46 48 45 42 34 34 35 37 40 42 85 83 80 78 71 68 64 64 64 61 61 62 61 62 64
44 45 46 46 46 45 46 45 45 45 44 43 39 35 37 39 43 46 54 81 82 82 76 72 68 66 65 64 62 62 62 62 62
45 43 47 46 44 41 44 45 46 43 41 42 39 36 34 42 45 47 46 59 86 83 80 74 72 69 67 67 68 66 65 64 64
50 50 44 42 44 46 48 48 48 47 47 45 44 45 42 41 42 45 47 52 47 81 85 84 77 74 71 67 68 68 67 66 65
51 51 48 41 47 50 52 51 49 52 52 53 50 51 53 51 45 47 48 49 54 53 85 88 89 87 76 70 67 69 71 69 67
54 52 51 48 51 52 54 55 54 54 52 49 51 54 54 55 54 49 46 48 52 53 56 68 70 91 86 78 68 65 71 72 71
55 55 52 53 55 54 53 56 59 62 60 64 64 60 55 55 54 54 50 49 51 51 52 54 54 64 87 86 80 73 68 69 75
59 60 60 56 59 59 58 60 65 65 65 68 68 74 62 59 54 55 51 50 52 52 51 50 52 57 59 78 86 84 80 73 69
72 66 63 64 64 68 68 68 72 72 68 66 73 82 80 71 62 60 56 51 53 53 52 52 54 56 59 71 77 85 83 79 75
89 88 80 71 76 76 76 70 71 75 78 81 70 72 71 82 81 70 64 58 55 59 57 59 57 60 68 74 86 86 84 80 76
89 88 88 85 78 78 73 76 74 74 77 77 86 81 82 82 91 93 83 72 65 60 62 62 64 66 70 74 82 86 84 80 76

GFSFLT1_sfc_rhum_096.txt.gz
RH
70 73 77 78 76 77 79 80 79 80 81 79 78 75 80 72 62 68 72 71 64 67 71 73 72 72 73 74 74 75 75 72 70
73 76 81 80 78 78 79 79 81 82 82 80 76 78 81 57 64 74 79 70 63 64 66 67 71 72 72 72 72 72 70 69 67
72 77 80 78 76 76 78 78 80 82 81 79 76 78 82 58 67 77 84 73 63 63 63 64 65 66 67 68 68 68 67 66 66
75 78 80 77 77 77 78 80 79 78 76 74 75 76 80 62 66 64 81 75 64 64 64 64 65 66 67 67 67 67 66 65 65
87 84 83 83 82 82 82 78 81 80 78 77 77 76 83 72 69 78 84 69 65 65 65 64 64 66 66 66 67 66 66 65 64
87 87 88 86 84 83 80 78 79 83 83 83 81 80 77 63 72 82 80 69 66 65 66 65 65 66 66 66 66 66 66 65 66
72 90 91 88 87 85 82 82 82 80 79 83 79 80 70 62 74 87 80 70 67 66 66 66 65 65 66 66 66 66 66 66 66
80 92 89 94 92 92 90 90 81 72 64 73 72 61 61 65 70 83 84 72 69 68 65 66 65 64 64 63 65 66 65 66 65
81 87 95 94 87 81 86 86 78 66 60 59 51 55 60 61 72 89 84 82 74 70 68 65 65 64 62 63 63 64 64 65 65
62 76 85 86 83 82 84 78 69 68 65 59 51 47 51 55 60 87 88 83 81 76 72 68 65 66 64 63 62 63 62 64 63
62 66 73 74 71 76 73 68 66 68 65 64 54 50 52 54 58 74 87 85 82 79 76 73 70 67 68 66 64 64 62 64 62
64 68 71 70 65 62 65 65 66 66 59 62 59 54 52 60 60 63 70 80 86 82 76 74 73 71 68 68 68 66 65 64 63
67 70 68 66 66 66 70 70 72 70 69 67 65 62 56 55 60 62 64 69 69 86 84 84 78 77 73 69 69 70 68 68 66
71 73 69 60 69 71 72 73 74 77 75 72 72 74 73 69 59 64 64 66 68 78 86 88 89 87 78 72 70 71 72 71 69
71 73 70 64 73 75 77 78 77 76 77 63 66 74 75 76 75 71 64 66 69 70 74 93 93 92 87 77 71 68 73 75 73
70 73 72 71 72 74 74 77 80 86 82 86 86 83 76 74 75 75 71 68 63 66 69 77 78 87 87 85 78 75 76 70 73
71 76 76 72 77 74 75 76 84 83 85 88 92 92 84 80 73 75 70 70 69 67 65 67 70 73 87 83 82 81 80 80 75
88 84 90 86 84 84 82 82 83 90 87 83 88 95 94 85 78 72 70 68 74 72 67 64 68 70 75 82 88 86 83 79 76
96 95 95 95 95 95 96 93 94 92 95 91 87 90 90 95 93 87 80 70 72 75 77 79 76 79 89 90 88 87 84 78 73
96 96 95 94 93 92 93 95 94 92 94 95 96 94 95 94 97 97 95 90 81 82 81 81 84 82 88 90 91 84 82 77 74

GFSFLT1_sfc_rhum_099.txt.gz
RH
70 72 78 81 80 78 77 79 80 81 81 76 72 74 74 76 80 83 74 72 64 67 70 69 70 71 72 73 74 72 69 67 66
75 77 81 81 84 80 80 80 82 82 80 74 73 76 77 75 89 89 81 69 63 64 66 68 70 70 69 68 68 68 67 66 65
77 78 81 79 79 78 78 81 82 81 77 72 73 81 75 73 84 88 87 71 63 63 64 65 66 67 67 68 67 67 66 65 65
78 81 81 78 79 81 81 80 78 76 72 70 75 80 85 78 80 73 85 73 64 64 64 65 66 66 67 67 66 66 66 65 65
85 87 85 83 82 82 84 81 78 76 74 74 74 78 81 85 84 87 85 69 65 66 65 65 66 66 67 67 67 66 66 65 64
86 90 90 88 86 83 80 80 83 84 82 80 79 81 79 86 87 89 80 68 66 67 66 66 66 66 66 67 67 66 66 66 65
84 91 90 88 87 87 82 81 82 80 84 83 78 79 79 84 88 91 80 70 68 67 67 67 66 67 66 67 66 66 66 66 66
93 98 97 97 94 96 91 91 88 87 86 81 78 75 72 82 87 87 82 74 70 68 67 67 66 66 66 65 66 67 67 66 67
86 98 98 98 98 97 96 96 86 80 72 75 64 63 66 75 88 94 86 80 73 71 68 67 67 66 65 64 64 65 66 66 66
93 96 97 96 96 96 97 95 88 81 70 66 54 52 56 62 85 94 90 87 83 75 73 69 68 67 65 64 64 63 63 66 65
83 89 91 95 91 92 91 89 80 78 76 71 60 53 54 58 69 87 91 88 84 81 75 73 70 68 68 66 65 65 63 65 63
72 84 91 88 84 84 83 76 74 72 67 69 68 60 58 61 64 74 83 87 90 83 74 74 74 72 70 69 68 67 66 65 64
72 76 78 75 74 72 76 76 77 76 75 71 69 69 61 63 66 69 74 79 75 87 83 83 77 75 74 71 71 71 70 69 67
72 77 72 70 75 76 75 80 81 82 81 78 79 79 77 68 61 71 70 73 78 83 86 89 88 87 78 73 70 72 73 72 71
74 77 75 68 78 80 82 81 84 83 83 70 72 80 80 82 82 75 68 72 74 78 84 94 93 92 85 80 72 69 71 76 75
75 80 77 73 75 76 75 80 83 86 87 86 87 84 80 79 82 81 79 76 69 74 81 93 90 84 89 84 81 80 77 72 75
77 78 80 78 76 76 78 82 88 88 89 89 94 94 87 90 83 85 79 78 69 71 70 74 76 89 90 93 86 83 79 76 75
90 86 86 88 84 84 85 84 86 91 93 90 90 96 96 93 85 79 74 70 74 77 75 76 74 86 94 93 91 86 82 75 71
97 97 97 97 96 95 96 94 93 94 97 96 93 95 92 92 90 87 76 75 78 87 87 87 85 89 92 90 88 86 82 76 72
95 97 98 98 98 97 98 97 98 98 97 97 98 98 97 93 95 95 92 82 89 90 90 91 94 90 88 94 91 83 80 76 72

GFSFLT1_sfc_rhum_102.txt.gz
RH
70 73 77 81 81 79 78 80 81 80 79 76 72 74 77 80 85 84 76 75 66 68 68 68 69 71 65 66 65 67 66 65 65
73 77 80 82 83 80 80 81 82 79 78 71 73 77 82 88 93 88 80 71 64 64 66 67 68 67 67 67 66 66 65 65 65
77 81 85 83 80 80 80 81 80 76 73 74 75 79 80 82 91 89 86 70 63 65 66 66 66 66 66 66 66 65 64 65 64
78 81 83 81 79 81 82 81 78 72 70 74 81 83 83 88 87 77 86 73 64 64 65 65 66 67 67 66 66 65 64 64 64
86 88 85 84 86 85 83 78 74 72 74 74 82 83 85 91 89 89 85 69 66 66 66 66 65 67 67 67 66 66 65 64 64
94 94 91 88 86 86 84 81 80 79 78 75 78 83 86 92 92 92 79 68 67 68 68 66 67 67 67 67 66 66 66 65 64
88 95 92 90 89 87 82 82 83 81 84 81 80 83 86 92 94 94 80 69 68 68 68 68 68 67 67 67 67 66 66 66 65
98 98 97 97 95 97 93 92 91 87 87 84 82 80 86 94 94 90 83 73 70 68 68 68 68 67 66 66 67 67 67 67 66
99 99 98 98 98 96 96 96 88 84 81 83 84 70 76 91 94 95 86 81 72 70 69 68 67 66 65 65 66 66 67 67 66
98 99 99 98 98 97 97 96 92 92 88 75 62 58 70 85 93 97 92 87 82 75 72 70 69 66 66 65 65 64 66 65 66
95 97 98 98 97 97 97 97 96 93 86 76 68 58 60 70 90 94 94 90 87 82 75 73 71 70 68 66 66 65 67 64 65
94 94 98 97 96 93 95 93 84 85 77 81 76 66 62 64 71 86 90 90 91 86 75 73 76 73 72 70 69 68 66 67 65
83 95 96 93 92 92 91 85 83 80 78 76 74 73 68 64 69 75 81 85 83 88 84 83 78 75 75 72 73 72 71 70 68
78 84 88 82 85 82 82 84 83 85 84 80 81 83 79 71 61 70 73 79 82 84 86 88 88 87 80 72 72 72 75 74 72
78 81 76 77 82 82 85 83 88 86 84 74 77 86 86 86 84 78 74 76 78 81 84 93 95 92 84 79 75 72 71 78 77
76 80 81 76 79 79 80 83 83 88 89 88 88 90 86 84 86 88 86 83 76 74 88 96 95 90 89 85 84 81 79 74 78
78 82 83 81 76 77 78 81 89 87 89 89 95 94 88 92 90 90 87 86 75 69 71 80 91 96 97 93 86 83 77 74 73
89 89 88 88 82 86 90 92 92 93 96 93 89 96 96 95 93 92 89 81 79 74 76 84 86 85 96 94 92 85 81 74 70
96 96 97 96 98 96 96 96 96 98 98 98 96 96 95 96 94 89 81 76 77 83 85 93 89 90 91 89 88 85 83 76 72
96 98 99 99 99 99 99 99 99 98 98 98 99 99 99 98 99 97 93 81 83 88 84 84 88 90 91 96 90 84 80 76 73

GFSFLT1_sfc_rhum_105.txt.gz
RH
70 72 77 81 82 82 80 80 76 80 79 74 70 73 77 80 86 86 78 79 65 66 67 64 64 63 65 66 66 65 65 65 64
74 77 80 81 82 81 81 79 75 80 77 74 72 76 82 89 92 87 82 74 65 66 66 66 66 66 66 65 65 64 64 64 65
78 80 83 81 80 80 81 79 74 75 75 74 75 79 82 85 91 90 87 71 65 65 66 66 67 66 66 65 65 64 64 64 64
84 86 85 81 81 82 83 80 74 74 78 77 78 83 85 91 89 80 88 73 64 65 66 66 66 67 67 66 65 64 64 64 64
88 90 86 85 85 85 83 78 72 75 78 81 83 84 86 93 91 90 88 69 66 67 66 66 67 67 68 66 66 65 64 64 64
94 94 92 90 88 84 81 78 78 78 80 82 85 86 91 94 94 94 79 68 67 68 68 67 67 68 68 67 67 66 65 64 64
94 97 93 91 91 90 84 83 81 81 84 84 83 91 93 95 96 96 79 68 67 68 69 69 68 68 68 67 67 66 66 65 65
99 99 99 98 96 97 93 93 92 85 87 86 86 85 92 97 97 91 82 70 68 68 68 69 68 68 68 68 67 67 67 66 66
99 99 98 97 98 96 95 96 91 87 85 86 87 81 88 97 98 96 88 80 70 69 68 68 68 67 66 66 67 68 67 66 66
98 98 98 98 98 97 97 95 89 90 90 85 78 66 79 89 97 98 93 88 81 73 70 69 67 67 66 65 65 66 66 66 66
98 98 98 98 98 97 97 97 96 95 94 87 78 65 67 80 93 96 95 93 87 82 75 72 71 69 68 66 66 65 67 66 65
97 98 99 98 98 96 97 96 94 94 89 89 85 78 67 68 77 92 94 92 93 87 76 74 75 73 71 71 70 68 69 67 66
98 98 98 97 97 97 97 96 93 88 84 81 79 78 76 68 70 79 88 89 87 88 85 84 78 77 75 74 74 72 71 71 69
92 96 97 95 97 96 94 92 87 88 87 83 82 84 83 74 64 75 78 82 87 88 85 89 88 88 78 74 73 70 76 75 73
82 86 90 91 93 92 89 87 90 88 86 76 79 86 86 87 89 82 77 82 82 86 80 90 94 92 85 80 78 73 73 79 79
79 83 82 84 85 85 86 87 86 89 91 90 87 86 84 90 91 92 91 87 83 81 81 89 90 97 91 87 83 80 76 77 76
78 83 86 80 82 82 85 85 90 85 89 89 95 94 88 93 92 96 91 91 82 79 76 86 89 93 98 93 86 82 76 72 70
84 85 91 91 87 87 88 89 87 92 96 92 90 97 95 97 95 94 95 94 93 86 85 85 85 83 93 94 92 84 82 75 70
91 92 93 94 97 95 93 94 96 97 98 99 99 99 97 98 97 94 86 82 82 86 87 87 82 81 86 89 87 84 82 76 73
96 97 99 99 99 99 99 99 99 99 99 99 99 99 100 98 99 98 97 88 88 86 84 85 84 82 88 93 93 84 80 75 74

GFSFLT1_sfc_rhum_108.txt.gz
RH
69 71 77 81 84 83 78 77 78 76 73 68 70 74 78 81 88 88 81 81 65 66 67 67 66 66 65 65 64 64 64 65 64
73 76 82 84 85 81 76 77 78 77 72 69 72 77 81 90 92 88 84 77 65 66 67 67 66 66 65 64 65 64 65 64 64
76 79 83 85 81 79 76 76 76 76 73 71 74 79 82 86 92 91 89 73 65 66 67 67 66 66 65 64 64 64 64 64 64
79 83 85 84 83 84 81 76 77 76 76 74 78 83 85 93 91 82 90 74 66 66 67 67 67 67 66 65 65 64 64 64 63
88 90 87 86 88 87 85 79 77 79 80 79 82 87 86 93 93 93 89 70 68 67 67 67 68 68 67 66 66 64 64 64 64
95 94 91 91 90 86 81 78 79 84 84 85 86 86 95 94 96 96 78 68 68 69 68 68 68 68 68 67 66 65 64 65 64
95 96 95 93 91 89 83 81 81 82 87 90 87 94 94 96 96 96 78 68 68 69 70 69 69 69 68 67 66 66 65 65 65
99 99 99 98 97 98 95 94 91 88 88 88 89 92 94 97 97 91 83 70 68 69 69 69 69 69 69 68 67 67 66 65 66
100 99 99 98 98 97 96 96 92 89 87 87 88 86 93 97 98 95 89 79 70 69 69 69 68 68 68 68 68 67 66 65 65
99 98 98 98 97 96 95 93 88 89 89 88 84 69 82 91 97 98 94 89 80 72 70 69 68 68 67 66 67 68 67 65 65
98 98 98 98 98 97 96 95 94 95 95 92 86 71 72 83 93 97 95 93 88 82 74 72 71 69 68 66 66 68 67 66 64
97 98 98 98 98 96 97 96 96 96 93 92 90 87 73 70 82 94 95 93 93 88 79 75 76 74 75 72 70 69 70 68 66
98 98 98 98 98 98 98 97 96 95 93 88 82 83 81 73 71 78 90 92 89 89 86 83 80 76 75 70 72 73 71 71 70
98 97 97 97 98 98 96 97 94 94 90 85 83 84 85 80 66 72 78 86 90 92 87 89 86 86 80 74 73 68 77 75 73
97 98 97 97 98 98 97 95 94 90 88 80 80 87 89 91 90 84 77 83 83 87 82 82 90 90 82 79 76 74 72 75 80
87 91 94 97 96 94 94 92 91 94 94 92 88 87 86 92 94 94 94 92 89 90 86 88 93 98 89 86 82 77 75 73 75
78 85 87 90 92 90 90 89 94 92 94 92 92 91 86 94 92 97 94 92 88 90 91 93 96 91 92 90 84 80 74 71 68
85 87 90 88 89 92 91 92 90 93 97 93 94 97 96 97 91 89 92 93 93 91 89 94 92 86 92 89 88 82 80 75 70
88 88 92 94 97 97 95 95 96 98 98 99 99 99 98 99 97 93 88 84 84 90 91 90 90 85 88 85 85 81 79 76 72
95 95 98 98 99 99 98 98 99 98 98 98 99 99 99 99 100 99 98 93 91 91 91 92 90 86 91 92 94 88 84 74 71

GFSFLT1_sfc_rhum_111.txt.gz
RH
71 77 80 85 85 82 80 77 76 73 70 70 72 75 78 74 61 60 62 56 64 66 66 66 65 65 64 64 65 65 64 64 64
73 80 85 87 83 80 78 77 75 70 69 70 74 77 80 58 59 59 59 58 65 66 66 66 65 64 64 64 64 64 64 64 64
76 83 87 86 80 80 79 76 75 70 70 72 76 80 79 61 60 62 58 70 66 66 66 66 66 65 65 64 64 64 63 62 63
78 86 87 84 82 82 82 79 76 73 72 74 79 83 84 60 60 58 57 74 67 67 67 67 66 66 65 64 65 64 64 64 62
86 89 87 86 87 84 83 82 79 78 76 78 82 86 84 59 63 61 60 70 67 67 68 68 67 66 67 66 65 64 64 63 61
74 85 91 89 90 85 83 82 84 88 87 85 85 82 60 58 61 60 77 69 68 69 69 69 68 68 68 66 65 65 65 64 64
72 85 93 92 91 86 81 80 83 75 61 66 78 58 60 59 62 61 78 68 68 70 70 70 69 69 68 66 66 65 65 65 66
77 81 82 80 87 72 71 66 60 61 56 59 58 61 60 58 61 71 82 69 68 69 70 70 70 70 68 67 67 66 66 66 65
83 83 82 80 74 75 70 62 61 61 59 56 54 55 61 60 62 69 90 79 69 68 68 69 68 68 68 68 67 66 65 65 65
81 80 78 76 74 68 67 61 60 59 58 56 54 50 57 62 63 62 92 89 78 71 69 68 68 67 67 67 68 67 66 64 64
78 80 78 76 71 69 62 58 59 62 64 63 56 46 49 54 64 62 63 92 87 81 73 72 70 69 68 67 66 68 66 65 64
76 74 75 71 72 72 71 70 73 72 70 68 62 60 51 47 51 62 62 65 93 88 80 78 77 75 72 70 70 70 70 69 68
74 71 73 74 75 74 77 77 75 72 68 66 60 57 59 54 49 52 57 62 59 77 85 82 77 73 73 71 71 73 72 72 70
76 75 74 77 80 79 78 79 74 74 71 66 60 58 58 58 53 50 52 58 63 60 78 87 87 84 77 73 69 67 74 75 73
81 79 78 78 81 80 81 78 76 70 68 65 63 64 64 66 66 56 53 54 59 60 64 70 71 88 81 76 72 70 70 72 78
83 81 81 82 80 78 78 77 78 77 72 70 68 69 71 72 82 73 64 66 65 63 62 64 64 74 90 84 77 73 72 71 72
76 78 81 83 83 81 79 76 76 73 75 74 83 79 76 83 79 80 72 71 71 77 78 81 88 90 74 76 82 77 71 68 66
81 79 82 81 81 83 82 81 76 82 86 81 83 92 94 96 92 87 88 90 88 84 87 85 87 85 89 82 80 80 78 72 68
83 85 83 85 89 87 88 88 91 94 94 94 92 89 86 97 93 90 86 82 83 89 91 88 87 83 90 87 84 81 79 74 70
86 89 88 95 96 96 96 97 96 94 91 91 95 96 97 97 99 99 97 94 94 86 90 92 91 90 95 94 89 89 85 74 70

GFSFLT1_sfc_rhum_114.txt.gz
RH
76 78 86 86 84 82 78 77 76 74 76 74 75 74 70 64 42 45 52 51 64 65 65 65 64 64 64 64 64 65 64 64 63
80 84 88 86 84 80 76 72 70 70 70 72 74 74 74 40 42 45 48 55 65 65 65 65 64 64 64 64 64 64 63 64 65
81 87 87 84 82 79 75 70 70 70 71 73 75 75 69 44 46 48 52 69 66 65 66 65 65 64 64 65 64 63 63 60 65
81 88 85 83 83 83 81 74 70 71 73 76 79 81 76 43 44 42 49 75 66 66 67 66 65 65 65 65 64 64 64 62 65
87 89 86 86 86 85 84 79 73 73 75 78 82 83 77 43 46 45 56 70 68 68 68 67 66 66 66 65 64 65 63 63 62
72 78 91 88 87 87 85 83 82 85 86 83 83 82 40 40 43 46 77 68 68 69 69 69 68 67 66 66 65 65 64 64 61
54 77 92 90 88 87 85 85 85 77 49 54 74 41 41 42 45 50 77 68 68 69 70 70 70 69 67 66 65 65 65 66 65
59 76 74 65 76 55 61 62 47 47 43 46 42 41 41 41 44 65 76 69 69 69 70 70 70 69 68 67 65 65 65 65 65
55 68 66 62 51 51 48 44 45 46 44 41 40 42 42 41 43 62 87 75 69 69 69 69 69 69 68 67 67 65 65 64 64
57 58 58 52 50 48 45 42 44 44 42 42 41 40 43 45 44 43 88 87 75 71 70 70 69 68 68 68 67 67 65 64 64
52 53 54 52 48 44 43 41 41 43 41 42 40 36 38 40 45 42 52 90 87 78 73 71 70 70 69 68 68 68 67 66 64
54 51 52 49 45 44 43 42 42 45 48 48 44 45 42 39 39 40 42 54 93 87 82 76 76 73 72 70 70 70 71 70 68
52 51 49 46 45 44 44 43 48 52 54 53 50 48 48 44 42 41 41 47 44 78 86 83 78 75 74 73 74 73 74 74 72
49 47 46 48 53 56 57 59 56 60 59 56 51 48 47 48 43 44 42 43 48 47 82 87 88 84 76 72 69 68 73 77 76
50 50 53 56 60 59 61 61 61 58 57 52 52 50 51 51 50 47 43 42 47 48 49 52 60 86 81 77 72 68 67 74 79
59 57 59 61 62 61 62 64 67 67 62 57 52 53 54 56 56 55 58 55 54 52 49 51 56 64 89 83 77 72 70 70 72
63 64 65 64 64 66 66 67 72 64 57 58 61 61 59 60 59 63 65 68 67 65 80 72 70 81 74 76 84 80 73 69 67
71 67 71 70 74 76 70 67 68 66 69 71 67 70 68 68 69 67 77 78 74 80 83 84 88 84 86 83 81 82 80 76 69
73 78 73 72 76 76 76 74 78 91 90 84 77 76 75 75 72 70 66 68 78 87 86 90 81 83 91 89 92 90 81 78 73
74 73 69 76 80 89 92 93 91 85 80 82 86 88 85 82 92 98 96 93 97 92 80 86 90 86 88 93 94 92 85 83 75

GFSFLT1_sfc_rhum_117.txt.gz
RH
76 82 86 85 85 81 76 77 78 79 79 77 70 65 67 66 44 49 56 57 64 65 65 65 64 64 64 64 63 64 62 67 63
81 87 87 86 84 80 76 73 74 73 72 70 68 68 71 41 44 49 55 60 65 64 64 65 64 65 65 63 64 64 64 66 61
87 88 87 85 81 75 71 70 71 72 72 72 70 71 73 43 47 54 60 70 66 66 66 65 65 65 64 64 63 63 63 61 63
87 88 86 85 82 79 76 71 71 72 73 74 75 77 72 43 45 48 57 74 66 66 66 66 65 65 65 65 64 64 64 64 62
90 89 87 85 85 83 78 76 72 74 76 78 78 77 74 43 46 52 63 71 67 68 67 67 66 66 66 65 66 64 64 63 64
76 80 92 88 87 85 82 79 79 84 85 81 80 82 39 40 45 55 77 70 69 69 69 68 68 67 66 66 66 65 65 64 64
66 83 93 91 90 88 85 82 84 76 52 55 74 44 38 42 47 59 78 69 69 70 71 70 70 68 67 66 66 66 66 66 66
74 82 69 70 80 66 72 71 57 47 42 46 39 37 38 40 45 69 79 70 69 70 70 70 70 69 68 67 65 65 66 65 66
73 69 68 57 53 54 54 48 43 43 40 39 39 38 40 40 45 69 82 75 69 69 69 70 70 69 68 67 66 65 64 64 65
68 69 69 52 47 46 46 42 43 42 39 38 38 40 41 42 45 57 88 84 75 70 70 69 69 69 68 68 67 66 64 63 62
59 67 61 51 47 44 42 42 42 42 39 39 37 36 39 39 43 46 67 88 86 77 72 71 70 69 69 68 69 68 67 65 64
52 51 50 48 46 41 40 39 40 42 42 43 40 39 36 38 40 44 48 70 92 88 80 76 74 73 72 70 70 71 71 70 68
51 51 49 46 43 42 43 42 47 51 55 53 52 49 50 44 41 43 42 49 50 83 87 85 80 77 74 73 73 72 74 75 73
50 48 46 43 44 43 46 47 49 59 58 57 53 53 52 49 44 42 43 46 51 51 86 88 87 86 79 74 72 71 76 80 77
47 46 44 44 51 54 58 58 58 57 56 53 51 53 56 53 52 45 43 44 48 52 56 69 70 88 81 78 76 74 68 73 81
46 45 48 51 56 56 56 59 64 67 63 63 60 56 52 53 54 54 53 53 57 54 57 63 70 74 87 85 84 77 72 72 71
49 54 55 56 59 61 61 64 71 71 66 64 66 68 64 59 58 60 63 64 72 77 81 82 78 82 85 90 85 83 82 75 70
62 63 62 63 63 68 69 71 74 73 69 63 72 72 77 71 66 67 71 77 79 82 84 81 86 88 92 88 87 89 89 89 79
72 72 71 73 80 77 77 73 75 82 91 81 76 76 74 85 80 70 66 65 69 78 84 88 88 88 91 91 92 92 90 86 80
75 77 80 82 82 79 79 82 89 88 86 83 83 82 84 78 87 86 92 90 87 84 91 90 92 89 90 93 92 91 87 84 82